Time,TemperatureF,DewpointF,PressureIn,WindDirection,WindDirectionDegrees,WindSpeedMPH,WindSpeedGustMPH,Humidity,HourlyPrecipIn,Conditions,Clouds,dailyrainin,SoftwareType,DateUTC
2013-03-25 00:00:00,23.5,21.3,30.00,North,0,0.0,0.0,91,0.00,,,0.00,VWS V13.01,2013-03-25 05:00:00,
2013-03-25 00:05:00,23.5,21.3,30.00,North,0,0.0,0.0,91,0.00,,,0.00,VWS V13.01,2013-03-25 05:05:00,
2013-03-25 00:10:00,23.5,21.3,30.00,North,0,0.0,0.0,91,0.00,,,0.00,VWS V13.01,2013-03-25 05:10:00,
2013-03-25 00:15:00,23.5,21.3,29.97,North,0,0.0,0.0,91,0.00,,,0.00,VWS V13.01,2013-03-25 05:15:00,
2013-03-25 00:20:00,23.4,21.1,29.97,North,0,0.0,0.0,91,0.00,,,0.00,VWS V13.01,2013-03-25 05:20:00,
2013-03-25 00:21:00,23.2,21.0,29.97,North,0,0.0,0.0,91,0.00,,,0.00,VWS V13.01,2013-03-25 05:21:00,
2013-03-25 00:25:00,23.4,21.1,29.97,North,0,0.0,0.0,91,0.00,,,0.00,VWS V13.01,2013-03-25 05:25:00,
2013-03-25 00:26:00,23.4,21.1,29.97,North,0,0.0,0.0,91,0.00,,,0.00,VWS V13.01,2013-03-25 05:26:00,
2013-03-25 00:30:00,23.4,21.1,29.97,North,0,0.0,0.0,91,0.00,,,0.00,VWS V13.01,2013-03-25 05:30:00,
2013-03-25 00:31:00,23.5,21.3,29.97,North,0,0.0,0.0,91,0.00,,,0.00,VWS V13.01,2013-03-25 05:31:00,
2013-03-25 00:35:00,23.7,21.5,29.97,North,0,0.0,0.0,91,0.00,,,0.00,VWS V13.01,2013-03-25 05:35:00,
2013-03-25 00:36:00,23.5,21.3,29.97,North,0,0.0,0.0,91,0.00,,,0.00,VWS V13.01,2013-03-25 05:36:00,
2013-03-25 00:40:00,23.5,21.3,29.97,North,0,0.0,0.0,91,0.00,,,0.00,VWS V13.01,2013-03-25 05:40:00,
2013-03-25 00:41:00,23.5,21.3,29.97,North,0,0.0,0.0,91,0.00,,,0.00,VWS V13.01,2013-03-25 05:41:00,
2013-03-25 00:45:00,23.0,22.3,30.00,North,0,0.0,0.0,97,0.00,,,0.00,VWS V13.01,2013-03-25 05:45:00,
2013-03-25 00:46:00,23.0,22.3,30.00,North,0,0.0,0.0,97,0.00,,,0.00,VWS V13.01,2013-03-25 05:46:00,
2013-03-25 00:50:00,23.2,21.0,30.00,North,0,0.0,0.0,91,0.00,,,0.00,VWS V13.01,2013-03-25 05:50:00,
2013-03-25 00:51:00,23.2,21.0,30.00,North,0,0.0,0.0,91,0.00,,,0.00,VWS V13.01,2013-03-25 05:51:00,
2013-03-25 00:55:00,22.5,21.7,30.00,North,0,0.0,0.0,97,0.00,,,0.00,VWS V13.01,2013-03-25 05:55:00,
2013-03-25 00:56:00,22.6,21.9,30.00,North,0,0.0,0.0,97,0.00,,,0.00,VWS V13.01,2013-03-25 05:56:00,
2013-03-25 01:00:00,22.3,21.6,29.97,North,0,0.0,0.0,97,0.00,,,0.00,VWS V13.01,2013-03-25 06:00:00,
2013-03-25 01:01:00,22.3,21.6,29.97,North,0,0.0,0.0,97,0.00,,,0.00,VWS V13.01,2013-03-25 06:01:00,
2013-03-25 01:05:00,21.9,21.2,29.97,North,0,0.0,0.0,97,0.00,,,0.00,VWS V13.01,2013-03-25 06:05:00,
2013-03-25 01:06:00,21.9,21.2,29.97,North,0,0.0,0.0,97,0.00,,,0.00,VWS V13.01,2013-03-25 06:06:00,
2013-03-25 01:10:00,21.9,21.2,29.97,North,0,0.0,0.0,97,0.00,,,0.00,VWS V13.01,2013-03-25 06:10:00,
2013-03-25 01:11:00,21.7,21.0,29.97,North,0,0.0,0.0,97,0.00,,,0.00,VWS V13.01,2013-03-25 06:11:00,
2013-03-25 01:15:00,21.4,20.7,30.00,North,0,0.0,0.0,97,0.00,,,0.00,VWS V13.01,2013-03-25 06:15:00,
2013-03-25 01:16:00,21.4,20.7,30.00,North,0,0.0,0.0,97,0.00,,,0.00,VWS V13.01,2013-03-25 06:16:00,
2013-03-25 01:17:00,21.2,20.5,30.00,North,0,0.0,0.0,97,0.00,,,0.00,VWS V13.01,2013-03-25 06:17:00,
2013-03-25 01:20:00,21.0,20.3,30.00,North,0,0.0,0.0,97,0.00,,,0.00,VWS V13.01,2013-03-25 06:20:00,
2013-03-25 01:21:00,20.8,20.1,30.00,North,0,0.0,0.0,97,0.00,,,0.00,VWS V13.01,2013-03-25 06:21:00,
2013-03-25 01:22:00,20.8,20.1,30.00,North,0,0.0,0.0,97,0.00,,,0.00,VWS V13.01,2013-03-25 06:22:00,
2013-03-25 01:25:00,21.2,20.5,30.00,North,0,0.0,0.0,97,0.00,,,0.00,VWS V13.01,2013-03-25 06:25:00,
2013-03-25 01:26:00,21.0,20.3,30.00,North,0,0.0,0.0,97,0.00,,,0.00,VWS V13.01,2013-03-25 06:26:00,
2013-03-25 01:27:00,21.0,20.3,30.00,North,0,0.0,0.0,97,0.00,,,0.00,VWS V13.01,2013-03-25 06:27:00,
2013-03-25 01:30:00,21.0,20.3,30.00,North,0,0.0,0.0,97,0.00,,,0.00,VWS V13.01,2013-03-25 06:30:00,
2013-03-25 01:31:00,21.0,20.3,30.00,North,0,0.0,0.0,97,0.00,,,0.00,VWS V13.01,2013-03-25 06:31:00,
2013-03-25 01:32:00,21.0,20.3,30.00,North,0,0.0,0.0,97,0.00,,,0.00,VWS V13.01,2013-03-25 06:32:00,
2013-03-25 01:35:00,21.6,20.8,30.00,North,0,0.0,0.0,97,0.00,,,0.00,VWS V13.01,2013-03-25 06:35:00,
2013-03-25 01:37:00,21.4,20.7,30.00,North,0,0.0,0.0,97,0.00,,,0.00,VWS V13.01,2013-03-25 06:37:00,
2013-03-25 01:40:00,21.4,20.7,30.00,North,0,0.0,0.0,97,0.00,,,0.00,VWS V13.01,2013-03-25 06:40:00,
2013-03-25 01:42:00,21.7,21.0,30.00,North,0,0.0,0.0,97,0.00,,,0.00,VWS V13.01,2013-03-25 06:42:00,
2013-03-25 01:45:00,21.6,20.8,30.00,North,0,0.0,0.0,97,0.00,,,0.00,VWS V13.01,2013-03-25 06:45:00,
2013-03-25 01:47:00,21.7,21.0,30.00,North,0,0.0,0.0,97,0.00,,,0.00,VWS V13.01,2013-03-25 06:47:00,
2013-03-25 01:50:00,22.1,21.4,30.00,North,0,0.0,0.0,97,0.00,,,0.00,VWS V13.01,2013-03-25 06:50:00,
2013-03-25 01:52:00,21.9,21.2,30.00,North,0,0.0,0.0,97,0.00,,,0.00,VWS V13.01,2013-03-25 06:52:00,
2013-03-25 01:55:00,21.9,21.2,30.00,North,0,0.0,0.0,97,0.00,,,0.00,VWS V13.01,2013-03-25 06:55:00,
2013-03-25 01:57:00,22.1,21.4,30.00,North,0,0.0,0.0,97,0.00,,,0.00,VWS V13.01,2013-03-25 06:57:00,
2013-03-25 01:58:00,22.1,21.4,30.00,North,0,0.0,0.0,97,0.00,,,0.00,VWS V13.01,2013-03-25 06:58:00,
2013-03-25 02:00:00,22.1,21.4,30.00,North,0,0.0,0.0,97,0.00,,,0.00,VWS V13.01,2013-03-25 07:00:00,
2013-03-25 02:02:00,21.9,21.2,30.00,North,0,0.0,0.0,97,0.00,,,0.00,VWS V13.01,2013-03-25 07:02:00,
2013-03-25 02:03:00,21.9,21.2,30.00,North,0,0.0,0.0,97,0.00,,,0.00,VWS V13.01,2013-03-25 07:03:00,
2013-03-25 02:05:00,21.9,21.2,30.00,North,0,0.0,0.0,97,0.00,,,0.00,VWS V13.01,2013-03-25 07:05:00,
2013-03-25 02:08:00,22.1,21.4,30.00,North,0,0.0,0.0,97,0.00,,,0.00,VWS V13.01,2013-03-25 07:08:00,
2013-03-25 02:10:00,21.9,21.2,30.00,North,0,0.0,0.0,97,0.00,,,0.00,VWS V13.01,2013-03-25 07:10:00,
2013-03-25 02:13:00,22.1,21.4,29.97,North,0,0.0,0.0,97,0.00,,,0.00,VWS V13.01,2013-03-25 07:13:00,
2013-03-25 02:15:00,22.1,21.4,29.97,North,0,0.0,0.0,97,0.00,,,0.00,VWS V13.01,2013-03-25 07:15:00,
2013-03-25 02:18:00,21.9,21.2,29.97,North,0,0.0,0.0,97,0.00,,,0.00,VWS V13.01,2013-03-25 07:18:00,
2013-03-25 02:21:00,21.9,21.2,29.97,North,0,0.0,0.0,97,0.00,,,0.00,VWS V13.01,2013-03-25 07:21:00,
2013-03-25 02:23:00,21.9,21.2,29.97,North,0,0.0,0.0,97,0.00,,,0.00,VWS V13.01,2013-03-25 07:23:00,
2013-03-25 02:26:00,22.1,21.4,29.97,North,0,0.0,0.0,97,0.00,,,0.00,VWS V13.01,2013-03-25 07:26:00,
2013-03-25 02:28:00,21.9,21.2,30.00,North,0,0.0,0.0,97,0.00,,,0.00,VWS V13.01,2013-03-25 07:28:00,
2013-03-25 02:31:00,21.7,21.0,30.00,North,0,0.0,0.0,97,0.00,,,0.00,VWS V13.01,2013-03-25 07:31:00,
2013-03-25 02:33:00,21.7,21.0,30.00,North,0,0.0,0.0,97,0.00,,,0.00,VWS V13.01,2013-03-25 07:33:00,
2013-03-25 02:36:00,21.7,21.0,30.00,North,0,0.0,0.0,97,0.00,,,0.00,VWS V13.01,2013-03-25 07:36:00,
2013-03-25 02:38:00,21.7,21.0,30.00,North,0,0.0,0.0,97,0.00,,,0.00,VWS V13.01,2013-03-25 07:38:00,
2013-03-25 02:39:00,21.7,21.0,30.00,North,0,0.0,0.0,97,0.00,,,0.00,VWS V13.01,2013-03-25 07:39:00,
2013-03-25 02:41:00,21.9,21.2,30.00,North,0,0.0,0.0,97,0.00,,,0.00,VWS V13.01,2013-03-25 07:41:00,
2013-03-25 02:43:00,21.2,20.5,30.00,North,0,0.0,0.0,97,0.00,,,0.00,VWS V13.01,2013-03-25 07:43:00,
2013-03-25 02:44:00,21.4,20.7,30.00,North,0,0.0,0.0,97,0.00,,,0.00,VWS V13.01,2013-03-25 07:44:00,
2013-03-25 02:46:00,21.2,20.5,30.00,North,0,0.0,0.0,97,0.00,,,0.00,VWS V13.01,2013-03-25 07:46:00,
2013-03-25 02:48:00,21.0,20.3,30.00,North,0,0.0,0.0,97,0.00,,,0.00,VWS V13.01,2013-03-25 07:48:00,
2013-03-25 02:49:00,21.0,20.3,30.00,North,0,0.0,0.0,97,0.00,,,0.00,VWS V13.01,2013-03-25 07:49:00,
2013-03-25 02:51:00,21.0,20.3,30.00,North,0,0.0,0.0,97,0.00,,,0.00,VWS V13.01,2013-03-25 07:51:00,
2013-03-25 02:53:00,21.0,20.3,30.00,North,0,0.0,0.0,97,0.00,,,0.00,VWS V13.01,2013-03-25 07:53:00,
2013-03-25 02:54:00,21.0,20.3,30.00,North,0,0.0,0.0,97,0.00,,,0.00,VWS V13.01,2013-03-25 07:54:00,
2013-03-25 02:57:00,21.2,20.5,29.97,North,0,0.0,0.0,97,0.00,,,0.00,VWS V13.01,2013-03-25 07:57:00,
2013-03-25 02:58:00,20.8,20.1,29.97,North,0,0.0,0.0,97,0.00,,,0.00,VWS V13.01,2013-03-25 07:58:00,
2013-03-25 02:59:00,20.8,20.1,29.97,North,0,0.0,0.0,97,0.00,,,0.00,VWS V13.01,2013-03-25 07:59:00,
2013-03-25 03:02:00,20.8,20.1,29.97,North,0,0.0,0.0,97,0.00,,,0.00,VWS V13.01,2013-03-25 08:02:00,
2013-03-25 03:03:00,20.8,20.1,29.97,North,0,0.0,0.0,97,0.00,,,0.00,VWS V13.01,2013-03-25 08:03:00,
2013-03-25 03:04:00,20.8,20.1,29.97,North,0,0.0,0.0,97,0.00,,,0.00,VWS V13.01,2013-03-25 08:04:00,
2013-03-25 03:07:00,20.8,20.1,29.97,North,0,0.0,0.0,97,0.00,,,0.00,VWS V13.01,2013-03-25 08:07:00,
2013-03-25 03:08:00,20.7,19.9,29.97,North,0,0.0,0.0,97,0.00,,,0.00,VWS V13.01,2013-03-25 08:08:00,
2013-03-25 03:09:00,20.7,19.9,29.97,North,0,0.0,0.0,97,0.00,,,0.00,VWS V13.01,2013-03-25 08:09:00,
2013-03-25 03:12:00,20.8,20.1,30.00,North,0,0.0,0.0,97,0.00,,,0.00,VWS V13.01,2013-03-25 08:12:00,
2013-03-25 03:13:00,20.7,19.9,30.00,North,0,0.0,0.0,97,0.00,,,0.00,VWS V13.01,2013-03-25 08:13:00,
2013-03-25 03:14:00,20.7,19.9,30.00,North,0,0.0,0.0,97,0.00,,,0.00,VWS V13.01,2013-03-25 08:14:00,
2013-03-25 03:17:00,20.8,20.1,30.00,North,0,0.0,0.0,97,0.00,,,0.00,VWS V13.01,2013-03-25 08:17:00,
2013-03-25 03:18:00,20.5,19.8,30.00,North,0,0.0,0.0,97,0.00,,,0.00,VWS V13.01,2013-03-25 08:18:00,
2013-03-25 03:19:00,20.7,19.9,30.00,North,0,0.0,0.0,97,0.00,,,0.00,VWS V13.01,2013-03-25 08:19:00,
2013-03-25 03:22:00,20.8,20.1,30.00,North,0,0.0,0.0,97,0.00,,,0.00,VWS V13.01,2013-03-25 08:22:00,
2013-03-25 03:24:00,20.8,20.1,30.00,North,0,0.0,0.0,97,0.00,,,0.00,VWS V13.01,2013-03-25 08:24:00,
2013-03-25 03:27:00,20.7,19.9,29.97,North,0,0.0,0.0,97,0.00,,,0.00,VWS V13.01,2013-03-25 08:27:00,
2013-03-25 03:29:00,20.5,19.8,29.97,North,0,0.0,0.0,97,0.00,,,0.00,VWS V13.01,2013-03-25 08:29:00,
2013-03-25 03:32:00,20.7,19.9,29.97,North,0,0.0,0.0,97,0.00,,,0.00,VWS V13.01,2013-03-25 08:32:00,
2013-03-25 03:34:00,20.5,19.8,29.97,North,0,0.0,0.0,97,0.00,,,0.00,VWS V13.01,2013-03-25 08:34:00,
2013-03-25 03:38:00,20.3,19.6,29.97,North,0,0.0,0.0,97,0.00,,,0.00,VWS V13.01,2013-03-25 08:38:00,
2013-03-25 03:39:00,20.5,19.8,29.97,North,0,0.0,0.0,97,0.00,,,0.00,VWS V13.01,2013-03-25 08:39:00,
2013-03-25 03:42:00,20.7,19.9,29.97,North,0,0.0,0.0,97,0.00,,,0.00,VWS V13.01,2013-03-25 08:42:00,
2013-03-25 03:44:00,20.8,20.1,29.97,North,0,0.0,0.0,97,0.00,,,0.00,VWS V13.01,2013-03-25 08:44:00,
2013-03-25 03:48:00,20.5,19.8,29.97,North,0,0.0,0.0,97,0.00,,,0.00,VWS V13.01,2013-03-25 08:48:00,
2013-03-25 03:49:00,20.7,19.9,29.97,North,0,0.0,0.0,97,0.00,,,0.00,VWS V13.01,2013-03-25 08:49:00,
2013-03-25 03:53:00,20.8,20.1,29.97,North,0,0.0,0.0,97,0.00,,,0.00,VWS V13.01,2013-03-25 08:53:00,
2013-03-25 03:54:00,20.8,20.1,29.97,North,0,0.0,0.0,97,0.00,,,0.00,VWS V13.01,2013-03-25 08:54:00,
2013-03-25 03:58:00,21.0,20.3,29.97,North,0,0.0,0.0,97,0.00,,,0.00,VWS V13.01,2013-03-25 08:58:00,
2013-03-25 03:59:00,21.0,20.3,29.97,North,0,0.0,0.0,97,0.00,,,0.00,VWS V13.01,2013-03-25 08:59:00,
2013-03-25 04:03:00,21.0,20.3,29.97,North,0,0.0,0.0,97,0.00,,,0.00,VWS V13.01,2013-03-25 09:03:00,
2013-03-25 04:04:00,21.0,20.3,29.97,North,0,0.0,0.0,97,0.00,,,0.00,VWS V13.01,2013-03-25 09:04:00,
2013-03-25 04:08:00,21.0,20.3,29.97,North,0,0.0,0.0,97,0.00,,,0.00,VWS V13.01,2013-03-25 09:08:00,
2013-03-25 04:09:00,21.0,20.3,29.97,North,0,0.0,0.0,97,0.00,,,0.00,VWS V13.01,2013-03-25 09:09:00,
2013-03-25 04:13:00,21.2,20.5,29.97,North,0,0.0,0.0,97,0.00,,,0.00,VWS V13.01,2013-03-25 09:13:00,
2013-03-25 04:14:00,21.2,20.5,29.97,North,0,0.0,0.0,97,0.00,,,0.00,VWS V13.01,2013-03-25 09:14:00,
2013-03-25 04:18:00,21.6,21.6,29.97,North,0,0.0,0.0,100,0.00,,,0.00,VWS V13.01,2013-03-25 09:18:00,
2013-03-25 04:19:00,21.4,20.7,29.97,North,0,0.0,0.0,97,0.00,,,0.00,VWS V13.01,2013-03-25 09:19:00,
2013-03-25 04:23:00,21.2,20.5,29.97,North,0,0.0,0.0,97,0.00,,,0.00,VWS V13.01,2013-03-25 09:23:00,
2013-03-25 04:24:00,21.2,20.5,29.97,North,0,0.0,0.0,97,0.00,,,0.00,VWS V13.01,2013-03-25 09:24:00,
2013-03-25 04:29:00,21.2,20.5,30.00,North,0,0.0,0.0,97,0.00,,,0.00,VWS V13.01,2013-03-25 09:29:00,
2013-03-25 04:30:00,21.2,20.5,30.00,North,0,0.0,0.0,97,0.00,,,0.00,VWS V13.01,2013-03-25 09:30:00,
2013-03-25 04:34:00,21.0,21.0,30.00,North,0,0.0,0.0,100,0.00,,,0.00,VWS V13.01,2013-03-25 09:34:00,
2013-03-25 04:35:00,21.2,21.2,30.00,North,0,0.0,0.0,100,0.00,,,0.00,VWS V13.01,2013-03-25 09:35:00,
2013-03-25 04:39:00,20.8,20.8,30.00,North,0,0.0,0.0,100,0.00,,,0.00,VWS V13.01,2013-03-25 09:39:00,
2013-03-25 04:40:00,20.8,20.8,30.00,North,0,0.0,0.0,100,0.00,,,0.00,VWS V13.01,2013-03-25 09:40:00,
2013-03-25 04:44:00,20.7,20.7,29.97,North,0,0.0,0.0,100,0.00,,,0.00,VWS V13.01,2013-03-25 09:44:00,
2013-03-25 04:45:00,20.5,20.5,29.97,North,0,0.0,0.0,100,0.00,,,0.00,VWS V13.01,2013-03-25 09:45:00,
2013-03-25 04:49:00,20.3,20.3,29.97,North,0,0.0,0.0,100,0.00,,,0.00,VWS V13.01,2013-03-25 09:49:00,
2013-03-25 04:50:00,20.3,20.3,29.97,North,0,0.0,0.0,100,0.00,,,0.00,VWS V13.01,2013-03-25 09:50:00,
2013-03-25 04:54:00,19.4,19.4,29.97,North,0,0.0,0.0,100,0.00,,,0.00,VWS V13.01,2013-03-25 09:54:00,
2013-03-25 04:55:00,19.8,19.8,29.97,North,0,0.0,0.0,100,0.00,,,0.00,VWS V13.01,2013-03-25 09:55:00,
2013-03-25 04:59:00,19.8,19.8,30.00,North,0,0.0,0.0,100,0.00,,,0.00,VWS V13.01,2013-03-25 09:59:00,
2013-03-25 05:00:00,19.8,19.8,30.00,North,0,0.0,0.0,100,0.00,,,0.00,VWS V13.01,2013-03-25 10:00:00,
2013-03-25 05:04:00,19.6,19.6,30.00,North,0,0.0,0.0,100,0.00,,,0.00,VWS V13.01,2013-03-25 10:04:00,
2013-03-25 05:05:00,19.6,19.6,30.00,North,0,0.0,0.0,100,0.00,,,0.00,VWS V13.01,2013-03-25 10:05:00,
2013-03-25 05:10:00,19.8,19.8,30.00,North,0,0.0,0.0,100,0.00,,,0.00,VWS V13.01,2013-03-25 10:10:00,
2013-03-25 05:15:00,19.6,19.6,30.00,North,0,0.0,0.0,100,0.00,,,0.00,VWS V13.01,2013-03-25 10:15:00,
2013-03-25 05:20:00,19.9,19.9,30.00,North,0,0.0,0.0,100,0.00,,,0.00,VWS V13.01,2013-03-25 10:20:00,
2013-03-25 05:25:00,19.8,19.8,30.00,North,0,0.0,0.0,100,0.00,,,0.00,VWS V13.01,2013-03-25 10:25:00,
2013-03-25 05:30:00,19.8,19.8,30.00,North,0,0.0,0.0,100,0.00,,,0.00,VWS V13.01,2013-03-25 10:30:00,
2013-03-25 05:35:00,19.2,19.2,30.00,North,0,0.0,0.0,100,0.00,,,0.00,VWS V13.01,2013-03-25 10:35:00,
2013-03-25 05:40:00,19.4,19.4,30.00,North,0,0.0,0.0,100,0.00,,,0.00,VWS V13.01,2013-03-25 10:40:00,
2013-03-25 05:45:00,19.4,19.4,30.00,North,0,0.0,0.0,100,0.00,,,0.00,VWS V13.01,2013-03-25 10:45:00,
2013-03-25 05:50:00,19.8,19.8,30.00,North,0,0.0,0.0,100,0.00,,,0.00,VWS V13.01,2013-03-25 10:50:00,
2013-03-25 05:51:00,19.8,19.8,30.00,North,0,0.0,0.0,100,0.00,,,0.00,VWS V13.01,2013-03-25 10:51:00,
2013-03-25 05:55:00,19.6,19.6,30.00,North,0,0.0,0.0,100,0.00,,,0.00,VWS V13.01,2013-03-25 10:55:00,
2013-03-25 05:56:00,19.6,19.6,30.00,North,0,0.0,0.0,100,0.00,,,0.00,VWS V13.01,2013-03-25 10:56:00,
2013-03-25 06:00:00,19.8,19.8,30.03,North,0,0.0,0.0,100,0.00,,,0.00,VWS V13.01,2013-03-25 11:00:00,
2013-03-25 06:01:00,19.9,19.9,30.03,North,0,0.0,0.0,100,0.00,,,0.00,VWS V13.01,2013-03-25 11:01:00,
2013-03-25 06:02:00,19.9,19.9,30.03,North,0,0.0,0.0,100,0.00,,,0.00,VWS V13.01,2013-03-25 11:02:00,
2013-03-25 06:05:00,19.8,19.8,30.03,North,0,0.0,0.0,100,0.00,,,0.00,VWS V13.01,2013-03-25 11:05:00,
2013-03-25 06:06:00,19.6,19.6,30.03,North,0,0.0,0.0,100,0.00,,,0.00,VWS V13.01,2013-03-25 11:06:00,
2013-03-25 06:08:00,19.9,19.9,30.03,North,0,0.0,0.0,100,0.00,,,0.00,VWS V13.01,2013-03-25 11:08:00,
2013-03-25 06:10:00,20.3,20.3,30.03,North,0,0.0,0.0,100,0.00,,,0.00,VWS V13.01,2013-03-25 11:10:00,
2013-03-25 06:12:00,20.3,20.3,30.00,North,0,0.0,0.0,100,0.00,,,0.00,VWS V13.01,2013-03-25 11:12:00,
2013-03-25 06:13:00,20.3,20.3,30.00,North,0,0.0,0.0,100,0.00,,,0.00,VWS V13.01,2013-03-25 11:13:00,
2013-03-25 06:15:00,20.3,20.3,30.00,North,0,0.0,0.0,100,0.00,,,0.00,VWS V13.01,2013-03-25 11:15:00,
2013-03-25 06:17:00,20.3,20.3,30.00,North,0,0.0,0.0,100,0.00,,,0.00,VWS V13.01,2013-03-25 11:17:00,
2013-03-25 06:18:00,20.5,20.5,30.00,North,0,0.0,0.0,100,0.00,,,0.00,VWS V13.01,2013-03-25 11:18:00,
2013-03-25 06:20:00,20.3,20.3,30.00,North,0,0.0,0.0,100,0.00,,,0.00,VWS V13.01,2013-03-25 11:20:00,
2013-03-25 06:23:00,20.5,20.5,30.00,North,0,0.0,0.0,100,0.00,,,0.00,VWS V13.01,2013-03-25 11:23:00,
2013-03-25 06:25:00,20.5,20.5,30.00,North,0,0.0,0.0,100,0.00,,,0.00,VWS V13.01,2013-03-25 11:25:00,
2013-03-25 06:28:00,20.7,20.7,30.03,North,0,0.0,0.0,100,0.00,,,0.00,VWS V13.01,2013-03-25 11:28:00,
2013-03-25 06:30:00,21.0,21.0,30.03,North,0,0.0,0.0,100,0.00,,,0.00,VWS V13.01,2013-03-25 11:30:00,
2013-03-25 06:33:00,21.0,21.0,30.03,North,0,0.0,0.0,100,0.00,,,0.00,VWS V13.01,2013-03-25 11:33:00,
2013-03-25 06:35:00,21.2,21.2,30.03,North,0,0.0,0.0,100,0.00,,,0.00,VWS V13.01,2013-03-25 11:35:00,
2013-03-25 06:36:00,21.2,21.2,30.03,North,0,0.0,0.0,100,0.00,,,0.00,VWS V13.01,2013-03-25 11:36:00,
2013-03-25 06:38:00,21.2,21.2,30.03,North,0,0.0,0.0,100,0.00,,,0.00,VWS V13.01,2013-03-25 11:38:00,
2013-03-25 06:41:00,21.2,21.2,30.03,North,0,0.0,0.0,100,0.00,,,0.00,VWS V13.01,2013-03-25 11:41:00,
2013-03-25 06:43:00,21.4,21.4,30.03,North,0,0.0,0.0,100,0.00,,,0.00,VWS V13.01,2013-03-25 11:43:00,
2013-03-25 06:46:00,21.4,21.4,30.03,North,0,0.0,0.0,100,0.00,,,0.00,VWS V13.01,2013-03-25 11:46:00,
2013-03-25 06:48:00,21.4,21.4,30.03,North,0,0.0,0.0,100,0.00,,,0.00,VWS V13.01,2013-03-25 11:48:00,
2013-03-25 06:49:00,21.4,21.4,30.03,North,0,0.0,0.0,100,0.00,,,0.00,VWS V13.01,2013-03-25 11:49:00,
2013-03-25 06:51:00,21.6,21.6,30.03,North,0,0.0,0.0,100,0.00,,,0.00,VWS V13.01,2013-03-25 11:51:00,
2013-03-25 06:53:00,21.4,21.4,30.03,North,0,0.0,0.0,100,0.00,,,0.00,VWS V13.01,2013-03-25 11:53:00,
2013-03-25 06:54:00,21.4,21.4,30.03,North,0,0.0,0.0,100,0.00,,,0.00,VWS V13.01,2013-03-25 11:54:00,
2013-03-25 06:56:00,21.6,21.6,30.03,North,0,0.0,0.0,100,0.00,,,0.00,VWS V13.01,2013-03-25 11:56:00,
2013-03-25 06:57:00,21.6,21.6,30.03,North,0,0.0,0.0,100,0.00,,,0.00,VWS V13.01,2013-03-25 11:57:00,
2013-03-25 06:58:00,21.6,21.6,30.03,North,0,0.0,0.0,100,0.00,,,0.00,VWS V13.01,2013-03-25 11:58:00,
2013-03-25 06:59:00,21.6,21.6,30.03,North,0,0.0,0.0,100,0.00,,,0.00,VWS V13.01,2013-03-25 11:59:00,
2013-03-25 07:01:00,21.6,21.6,30.03,North,0,0.0,0.0,100,0.00,,,0.00,VWS V13.01,2013-03-25 12:01:00,
2013-03-25 07:02:00,21.6,21.6,30.03,North,0,0.0,0.0,100,0.00,,,0.00,VWS V13.01,2013-03-25 12:02:00,
2013-03-25 07:03:00,21.7,21.7,30.03,North,0,0.0,0.0,100,0.00,,,0.00,VWS V13.01,2013-03-25 12:03:00,
2013-03-25 07:04:00,21.7,21.7,30.03,North,0,0.0,0.0,100,0.00,,,0.00,VWS V13.01,2013-03-25 12:04:00,
2013-03-25 07:06:00,21.7,21.7,30.03,North,0,0.0,0.0,100,0.00,,,0.00,VWS V13.01,2013-03-25 12:06:00,
2013-03-25 07:07:00,21.7,21.7,30.03,North,0,0.0,0.0,100,0.00,,,0.00,VWS V13.01,2013-03-25 12:07:00,
2013-03-25 07:08:00,21.7,21.7,30.03,North,0,0.0,0.0,100,0.00,,,0.00,VWS V13.01,2013-03-25 12:08:00,
2013-03-25 07:09:00,21.7,21.7,30.03,North,0,0.0,0.0,100,0.00,,,0.00,VWS V13.01,2013-03-25 12:09:00,
2013-03-25 07:11:00,21.9,21.9,30.03,North,0,0.0,0.0,100,0.00,,,0.00,VWS V13.01,2013-03-25 12:11:00,
2013-03-25 07:12:00,21.7,21.7,30.03,North,0,0.0,0.0,100,0.00,,,0.00,VWS V13.01,2013-03-25 12:12:00,
2013-03-25 07:13:00,21.7,21.7,30.03,North,0,0.0,0.0,100,0.00,,,0.00,VWS V13.01,2013-03-25 12:13:00,
2013-03-25 07:14:00,21.7,21.7,30.03,North,0,0.0,0.0,100,0.00,,,0.00,VWS V13.01,2013-03-25 12:14:00,
2013-03-25 07:16:00,21.9,21.9,30.03,North,0,0.0,0.0,100,0.00,,,0.00,VWS V13.01,2013-03-25 12:16:00,
2013-03-25 07:17:00,21.9,21.9,30.03,North,0,0.0,0.0,100,0.00,,,0.00,VWS V13.01,2013-03-25 12:17:00,
2013-03-25 07:18:00,21.7,21.7,30.03,North,0,0.0,0.0,100,0.00,,,0.00,VWS V13.01,2013-03-25 12:18:00,
2013-03-25 07:20:00,21.9,21.9,30.03,North,0,0.0,0.0,100,0.00,,,0.00,VWS V13.01,2013-03-25 12:20:00,
2013-03-25 07:22:00,21.9,21.9,30.03,North,0,0.0,0.0,100,0.00,,,0.00,VWS V13.01,2013-03-25 12:22:00,
2013-03-25 07:23:00,21.9,21.9,30.03,North,0,0.0,0.0,100,0.00,,,0.00,VWS V13.01,2013-03-25 12:23:00,
2013-03-25 07:25:00,21.9,21.9,30.03,North,0,0.0,0.0,100,0.00,,,0.00,VWS V13.01,2013-03-25 12:25:00,
2013-03-25 07:27:00,22.1,22.1,30.03,North,0,0.0,0.0,100,0.00,,,0.00,VWS V13.01,2013-03-25 12:27:00,
2013-03-25 07:29:00,22.3,22.3,30.03,North,0,0.0,0.0,100,0.00,,,0.00,VWS V13.01,2013-03-25 12:29:00,
2013-03-25 07:30:00,22.3,22.3,30.03,North,0,0.0,0.0,100,0.00,,,0.00,VWS V13.01,2013-03-25 12:30:00,
2013-03-25 07:32:00,22.3,22.3,30.03,North,0,0.0,0.0,100,0.00,,,0.00,VWS V13.01,2013-03-25 12:32:00,
2013-03-25 07:34:00,22.5,22.5,30.03,North,0,0.0,0.0,100,0.00,,,0.00,VWS V13.01,2013-03-25 12:34:00,
2013-03-25 07:35:00,22.5,22.5,30.03,North,0,0.0,0.0,100,0.00,,,0.00,VWS V13.01,2013-03-25 12:35:00,
2013-03-25 07:37:00,22.5,22.5,30.03,North,0,0.0,0.0,100,0.00,,,0.00,VWS V13.01,2013-03-25 12:37:00,
2013-03-25 07:38:00,22.5,22.5,30.03,North,0,0.0,0.0,100,0.00,,,0.00,VWS V13.01,2013-03-25 12:38:00,
2013-03-25 07:39:00,22.5,22.5,30.03,North,0,0.0,0.0,100,0.00,,,0.00,VWS V13.01,2013-03-25 12:39:00,
2013-03-25 07:40:00,22.5,22.5,30.03,North,0,0.0,0.0,100,0.00,,,0.00,VWS V13.01,2013-03-25 12:40:00,
2013-03-25 07:42:00,22.6,22.6,30.03,North,0,0.0,0.0,100,0.00,,,0.00,VWS V13.01,2013-03-25 12:42:00,
2013-03-25 07:43:00,22.6,22.6,30.06,North,0,0.0,0.0,100,0.00,,,0.00,VWS V13.01,2013-03-25 12:43:00,
2013-03-25 07:44:00,22.6,22.6,30.06,North,0,0.0,0.0,100,0.00,,,0.00,VWS V13.01,2013-03-25 12:44:00,
2013-03-25 07:45:00,22.6,22.6,30.06,North,0,0.0,0.0,100,0.00,,,0.00,VWS V13.01,2013-03-25 12:45:00,
2013-03-25 07:47:00,22.6,22.6,30.06,North,0,0.0,0.0,100,0.00,,,0.00,VWS V13.01,2013-03-25 12:47:00,
2013-03-25 07:48:00,22.6,22.6,30.06,North,0,0.0,0.0,100,0.00,,,0.00,VWS V13.01,2013-03-25 12:48:00,
2013-03-25 07:49:00,22.8,22.8,30.06,North,0,0.0,0.0,100,0.00,,,0.00,VWS V13.01,2013-03-25 12:49:00,
2013-03-25 07:50:00,22.8,22.8,30.06,North,0,0.0,0.0,100,0.00,,,0.00,VWS V13.01,2013-03-25 12:50:00,
2013-03-25 07:52:00,22.8,22.8,30.06,North,0,0.0,0.0,100,0.00,,,0.00,VWS V13.01,2013-03-25 12:52:00,
2013-03-25 07:53:00,22.8,22.8,30.06,North,0,0.0,0.0,100,0.00,,,0.00,VWS V13.01,2013-03-25 12:53:00,
2013-03-25 07:54:00,22.8,22.8,30.06,North,0,0.0,0.0,100,0.00,,,0.00,VWS V13.01,2013-03-25 12:54:00,
2013-03-25 07:55:00,22.8,22.8,30.06,North,0,0.0,0.0,100,0.00,,,0.00,VWS V13.01,2013-03-25 12:55:00,
2013-03-25 07:57:00,22.8,22.8,30.06,North,0,0.0,0.0,100,0.00,,,0.00,VWS V13.01,2013-03-25 12:57:00,
2013-03-25 07:58:00,23.0,23.0,30.06,North,0,0.0,0.0,100,0.00,,,0.00,VWS V13.01,2013-03-25 12:58:00,
2013-03-25 08:00:00,23.0,23.0,30.06,North,0,0.0,0.0,100,0.00,,,0.00,VWS V13.01,2013-03-25 13:00:00,
2013-03-25 08:01:00,23.0,23.0,30.06,North,0,0.0,0.0,100,0.00,,,0.00,VWS V13.01,2013-03-25 13:01:00,
2013-03-25 08:02:00,23.2,23.2,30.06,North,0,0.0,0.0,100,0.00,,,0.00,VWS V13.01,2013-03-25 13:02:00,
2013-03-25 08:03:00,23.2,23.2,30.06,North,0,0.0,0.0,100,0.00,,,0.00,VWS V13.01,2013-03-25 13:03:00,
2013-03-25 08:05:00,23.4,23.4,30.06,North,0,0.0,0.0,100,0.00,,,0.00,VWS V13.01,2013-03-25 13:05:00,
2013-03-25 08:06:00,23.5,23.5,30.06,North,0,0.0,0.0,100,0.00,,,0.00,VWS V13.01,2013-03-25 13:06:00,
2013-03-25 08:07:00,23.5,23.5,30.06,North,0,0.0,0.0,100,0.00,,,0.00,VWS V13.01,2013-03-25 13:07:00,
2013-03-25 08:08:00,23.5,23.5,30.06,North,0,0.0,0.0,100,0.00,,,0.00,VWS V13.01,2013-03-25 13:08:00,
2013-03-25 08:10:00,23.7,23.7,30.06,North,0,0.0,0.0,100,0.00,,,0.00,VWS V13.01,2013-03-25 13:10:00,
2013-03-25 08:12:00,23.7,23.7,30.06,North,0,0.0,0.0,100,0.00,,,0.00,VWS V13.01,2013-03-25 13:12:00,
2013-03-25 08:13:00,23.9,23.9,30.06,North,0,0.0,0.0,100,0.00,,,0.00,VWS V13.01,2013-03-25 13:13:00,
2013-03-25 08:15:00,24.3,24.3,30.06,North,0,0.0,0.0,100,0.00,,,0.00,VWS V13.01,2013-03-25 13:15:00,
2013-03-25 08:17:00,24.3,24.3,30.06,North,0,0.0,0.0,100,0.00,,,0.00,VWS V13.01,2013-03-25 13:17:00,
2013-03-25 08:18:00,24.4,24.4,30.06,North,0,0.0,0.0,100,0.00,,,0.00,VWS V13.01,2013-03-25 13:18:00,
2013-03-25 08:20:00,24.4,24.4,30.06,North,0,0.0,0.0,100,0.00,,,0.00,VWS V13.01,2013-03-25 13:20:00,
2013-03-25 08:22:00,24.6,24.6,30.06,North,0,0.0,0.0,100,0.00,,,0.00,VWS V13.01,2013-03-25 13:22:00,
2013-03-25 08:23:00,24.6,24.6,30.06,North,0,0.0,0.0,100,0.00,,,0.00,VWS V13.01,2013-03-25 13:23:00,
2013-03-25 08:25:00,24.8,24.8,30.06,North,0,0.0,0.0,100,0.00,,,0.00,VWS V13.01,2013-03-25 13:25:00,
2013-03-25 08:27:00,24.8,24.8,30.06,North,0,0.0,0.0,100,0.00,,,0.00,VWS V13.01,2013-03-25 13:27:00,
2013-03-25 08:28:00,24.8,24.8,30.06,North,0,0.0,0.0,100,0.00,,,0.00,VWS V13.01,2013-03-25 13:28:00,
2013-03-25 08:30:00,24.8,24.8,30.06,North,0,0.0,0.0,100,0.00,,,0.00,VWS V13.01,2013-03-25 13:30:00,
2013-03-25 08:32:00,25.0,25.0,30.06,North,0,0.0,0.0,100,0.00,,,0.00,VWS V13.01,2013-03-25 13:32:00,
2013-03-25 08:33:00,24.8,24.8,30.06,North,0,0.0,0.0,100,0.00,,,0.00,VWS V13.01,2013-03-25 13:33:00,
2013-03-25 08:35:00,25.2,25.2,30.06,North,0,0.0,0.0,100,0.00,,,0.00,VWS V13.01,2013-03-25 13:35:00,
2013-03-25 08:38:00,25.2,25.2,30.06,North,0,0.0,0.0,100,0.00,,,0.00,VWS V13.01,2013-03-25 13:38:00,
2013-03-25 08:40:00,25.2,25.2,30.06,North,0,0.0,0.0,100,0.00,,,0.00,VWS V13.01,2013-03-25 13:40:00,
2013-03-25 08:43:00,25.3,25.3,30.06,North,0,0.0,0.0,100,0.00,,,0.00,VWS V13.01,2013-03-25 13:43:00,
2013-03-25 08:45:00,25.5,25.5,30.06,North,0,0.0,0.0,100,0.00,,,0.00,VWS V13.01,2013-03-25 13:45:00,
2013-03-25 08:48:00,25.9,25.9,30.06,North,0,0.0,0.0,100,0.00,,,0.00,VWS V13.01,2013-03-25 13:48:00,
2013-03-25 08:50:00,26.2,26.2,30.06,North,0,0.0,0.0,100,0.00,,,0.00,VWS V13.01,2013-03-25 13:50:00,
2013-03-25 08:53:00,26.4,26.4,30.06,North,0,0.0,0.0,100,0.00,,,0.00,VWS V13.01,2013-03-25 13:53:00,
2013-03-25 08:56:00,26.4,26.4,30.06,North,0,0.0,0.0,100,0.00,,,0.00,VWS V13.01,2013-03-25 13:56:00,
2013-03-25 08:58:00,26.4,26.4,30.09,North,0,0.0,0.0,100,0.00,,,0.00,VWS V13.01,2013-03-25 13:58:00,
2013-03-25 09:01:00,26.6,26.6,30.09,North,0,0.0,0.0,100,0.00,,,0.00,VWS V13.01,2013-03-25 14:01:00,
2013-03-25 09:03:00,26.8,26.8,30.09,North,0,0.0,0.0,100,0.00,,,0.00,VWS V13.01,2013-03-25 14:03:00,
2013-03-25 09:07:00,26.6,26.6,30.09,North,0,0.0,0.0,100,0.00,,,0.00,VWS V13.01,2013-03-25 14:07:00,
2013-03-25 09:08:00,27.0,27.0,30.09,North,0,0.0,0.0,100,0.00,,,0.00,VWS V13.01,2013-03-25 14:08:00,
2013-03-25 09:09:00,27.0,27.0,30.09,North,0,0.0,0.0,100,0.00,,,0.00,VWS V13.01,2013-03-25 14:09:00,
2013-03-25 09:12:00,27.1,27.1,30.09,North,0,0.0,0.0,100,0.00,,,0.00,VWS V13.01,2013-03-25 14:12:00,
2013-03-25 09:13:00,27.0,27.0,30.09,North,0,0.0,0.0,100,0.00,,,0.00,VWS V13.01,2013-03-25 14:13:00,
2013-03-25 09:14:00,27.0,27.0,30.09,North,0,0.0,0.0,100,0.00,,,0.00,VWS V13.01,2013-03-25 14:14:00,
2013-03-25 09:17:00,27.3,27.3,30.09,North,0,0.0,0.0,100,0.00,,,0.00,VWS V13.01,2013-03-25 14:17:00,
2013-03-25 09:18:00,27.5,27.5,30.09,North,0,0.0,0.0,100,0.00,,,0.00,VWS V13.01,2013-03-25 14:18:00,
2013-03-25 09:19:00,27.5,27.5,30.09,North,0,0.0,0.0,100,0.00,,,0.00,VWS V13.01,2013-03-25 14:19:00,
2013-03-25 09:22:00,27.9,27.9,30.09,North,0,0.0,0.0,100,0.00,,,0.00,VWS V13.01,2013-03-25 14:22:00,
2013-03-25 09:23:00,27.9,27.9,30.09,North,0,0.0,0.0,100,0.00,,,0.00,VWS V13.01,2013-03-25 14:23:00,
2013-03-25 09:24:00,27.9,27.9,30.09,North,0,0.0,0.0,100,0.00,,,0.00,VWS V13.01,2013-03-25 14:24:00,
2013-03-25 09:27:00,28.0,28.0,30.09,North,0,0.0,0.0,100,0.00,,,0.00,VWS V13.01,2013-03-25 14:27:00,
2013-03-25 09:29:00,28.2,28.2,30.09,North,0,0.0,0.0,100,0.00,,,0.00,VWS V13.01,2013-03-25 14:29:00,
2013-03-25 09:32:00,28.8,24.8,30.09,North,0,0.0,0.0,85,0.00,,,0.00,VWS V13.01,2013-03-25 14:32:00,
2013-03-25 09:34:00,28.8,24.8,30.09,North,0,0.0,0.0,85,0.00,,,0.00,VWS V13.01,2013-03-25 14:34:00,
2013-03-25 09:37:00,29.1,28.4,30.09,North,0,0.0,0.0,97,0.00,,,0.00,VWS V13.01,2013-03-25 14:37:00,
2013-03-25 09:39:00,28.9,28.2,30.09,North,0,0.0,0.0,97,0.00,,,0.00,VWS V13.01,2013-03-25 14:39:00,
2013-03-25 09:43:00,29.5,28.7,30.12,North,0,0.0,0.0,97,0.00,,,0.00,VWS V13.01,2013-03-25 14:43:00,
2013-03-25 09:44:00,29.5,25.5,30.12,North,0,0.0,0.0,85,0.00,,,0.00,VWS V13.01,2013-03-25 14:44:00,
2013-03-25 09:48:00,29.3,28.6,30.12,North,0,0.0,0.0,97,0.00,,,0.00,VWS V13.01,2013-03-25 14:48:00,
2013-03-25 09:49:00,29.1,25.2,30.12,North,0,0.0,0.0,85,0.00,,,0.00,VWS V13.01,2013-03-25 14:49:00,
2013-03-25 09:53:00,29.3,25.4,30.12,North,0,0.0,0.0,85,0.00,,,0.00,VWS V13.01,2013-03-25 14:53:00,
2013-03-25 09:54:00,29.5,28.7,30.12,North,0,0.0,0.0,97,0.00,,,0.00,VWS V13.01,2013-03-25 14:54:00,
2013-03-25 09:58:00,30.0,26.1,30.12,North,0,0.0,0.0,85,0.00,,,0.00,VWS V13.01,2013-03-25 14:58:00,
2013-03-25 09:59:00,29.8,25.9,30.12,North,0,0.0,0.0,85,0.00,,,0.00,VWS V13.01,2013-03-25 14:59:00,
2013-03-25 10:03:00,29.8,25.9,30.12,North,0,0.0,0.0,85,0.00,,,0.00,VWS V13.01,2013-03-25 15:03:00,
2013-03-25 10:04:00,30.0,26.1,30.12,North,0,0.0,0.0,85,0.00,,,0.00,VWS V13.01,2013-03-25 15:04:00,
2013-03-25 10:05:00,30.0,26.1,30.12,North,0,0.0,0.0,85,0.00,,,0.00,VWS V13.01,2013-03-25 15:05:00,
2013-03-25 10:08:00,30.2,26.2,30.12,North,0,0.0,0.0,85,0.00,,,0.00,VWS V13.01,2013-03-25 15:08:00,
2013-03-25 10:09:00,29.8,25.9,30.12,North,0,0.0,0.0,85,0.00,,,0.00,VWS V13.01,2013-03-25 15:09:00,
2013-03-25 10:10:00,29.7,25.7,30.12,North,0,0.0,0.0,85,0.00,,,0.00,VWS V13.01,2013-03-25 15:10:00,
2013-03-25 10:13:00,30.0,26.1,30.12,North,0,0.0,0.0,85,0.00,,,0.00,VWS V13.01,2013-03-25 15:13:00,
2013-03-25 10:14:00,30.2,26.2,30.12,North,0,0.0,0.0,85,0.00,,,0.00,VWS V13.01,2013-03-25 15:14:00,
2013-03-25 10:15:00,30.2,26.2,30.12,North,0,0.0,0.0,85,0.00,,,0.00,VWS V13.01,2013-03-25 15:15:00,
2013-03-25 10:18:00,30.0,26.1,30.12,North,0,0.0,0.0,85,0.00,,,0.00,VWS V13.01,2013-03-25 15:18:00,
2013-03-25 10:19:00,29.8,25.9,30.12,North,0,0.0,0.0,85,0.00,,,0.00,VWS V13.01,2013-03-25 15:19:00,
2013-03-25 10:20:00,29.8,25.9,30.12,North,0,0.0,0.0,85,0.00,,,0.00,VWS V13.01,2013-03-25 15:20:00,
2013-03-25 10:23:00,30.2,26.2,30.12,North,0,0.0,0.0,85,0.00,,,0.00,VWS V13.01,2013-03-25 15:23:00,
2013-03-25 10:24:00,29.8,25.9,30.12,North,0,0.0,0.0,85,0.00,,,0.00,VWS V13.01,2013-03-25 15:24:00,
2013-03-25 10:25:00,29.8,25.9,30.12,North,0,0.0,0.0,85,0.00,,,0.00,VWS V13.01,2013-03-25 15:25:00,
2013-03-25 10:28:00,30.4,26.4,30.12,North,0,0.0,0.0,85,0.00,,,0.00,VWS V13.01,2013-03-25 15:28:00,
2013-03-25 10:29:00,30.2,26.2,30.12,North,0,0.0,0.0,85,0.00,,,0.00,VWS V13.01,2013-03-25 15:29:00,
2013-03-25 10:30:00,30.2,26.2,30.12,North,0,0.0,0.0,85,0.00,,,0.00,VWS V13.01,2013-03-25 15:30:00,
2013-03-25 10:33:00,30.9,27.0,30.12,North,0,0.0,0.0,85,0.00,,,0.00,VWS V13.01,2013-03-25 15:33:00,
2013-03-25 10:34:00,30.7,26.8,30.12,North,0,0.0,0.0,85,0.00,,,0.00,VWS V13.01,2013-03-25 15:34:00,
2013-03-25 10:35:00,30.9,27.0,30.12,North,0,0.0,0.0,85,0.00,,,0.00,VWS V13.01,2013-03-25 15:35:00,
2013-03-25 10:38:00,31.3,30.5,30.12,North,0,0.0,0.0,97,0.00,,,0.00,VWS V13.01,2013-03-25 15:38:00,
2013-03-25 10:39:00,31.3,27.3,30.12,North,0,0.0,0.0,85,0.00,,,0.00,VWS V13.01,2013-03-25 15:39:00,
2013-03-25 10:40:00,31.1,27.1,30.12,North,0,0.0,0.0,85,0.00,,,0.00,VWS V13.01,2013-03-25 15:40:00,
2013-03-25 10:43:00,30.4,26.4,30.12,North,0,0.0,0.0,85,0.00,,,0.00,VWS V13.01,2013-03-25 15:43:00,
2013-03-25 10:44:00,30.2,26.2,30.12,North,0,0.0,0.0,85,0.00,,,0.00,VWS V13.01,2013-03-25 15:44:00,
2013-03-25 10:45:00,30.4,26.4,30.12,North,0,0.0,0.0,85,0.00,,,0.00,VWS V13.01,2013-03-25 15:45:00,
2013-03-25 10:48:00,30.6,26.6,30.12,North,0,0.0,0.0,85,0.00,,,0.00,VWS V13.01,2013-03-25 15:48:00,
2013-03-25 10:49:00,30.9,27.0,30.12,North,0,0.0,0.0,85,0.00,,,0.00,VWS V13.01,2013-03-25 15:49:00,
2013-03-25 10:50:00,30.9,27.0,30.12,North,0,0.0,0.0,85,0.00,,,0.00,VWS V13.01,2013-03-25 15:50:00,
2013-03-25 10:53:00,31.3,27.3,30.12,North,0,0.0,0.0,85,0.00,,,0.00,VWS V13.01,2013-03-25 15:53:00,
2013-03-25 10:54:00,31.3,27.3,30.12,North,0,0.0,0.0,85,0.00,,,0.00,VWS V13.01,2013-03-25 15:54:00,
2013-03-25 10:55:00,30.9,27.0,30.12,North,0,0.0,0.0,85,0.00,,,0.00,VWS V13.01,2013-03-25 15:55:00,
2013-03-25 10:58:00,31.6,27.7,30.12,North,0,0.0,0.0,85,0.00,,,0.00,VWS V13.01,2013-03-25 15:58:00,
2013-03-25 10:59:00,31.1,27.1,30.12,North,0,0.0,0.0,85,0.00,,,0.00,VWS V13.01,2013-03-25 15:59:00,
2013-03-25 11:00:00,31.3,27.3,30.12,North,0,0.0,0.0,85,0.00,,,0.00,VWS V13.01,2013-03-25 16:00:00,
2013-03-25 11:03:00,30.9,27.0,30.12,North,0,0.0,0.0,85,0.00,,,0.00,VWS V13.01,2013-03-25 16:03:00,
2013-03-25 11:04:00,31.1,27.1,30.12,North,0,0.0,0.0,85,0.00,,,0.00,VWS V13.01,2013-03-25 16:04:00,
2013-03-25 11:05:00,31.3,27.3,30.12,North,0,0.0,0.0,85,0.00,,,0.00,VWS V13.01,2013-03-25 16:05:00,
2013-03-25 11:08:00,30.9,27.0,30.12,North,0,0.0,0.0,85,0.00,,,0.00,VWS V13.01,2013-03-25 16:08:00,
2013-03-25 11:09:00,31.5,27.5,30.12,North,0,0.0,0.0,85,0.00,,,0.00,VWS V13.01,2013-03-25 16:09:00,
2013-03-25 11:10:00,30.9,27.0,30.12,North,0,0.0,0.0,85,0.00,,,0.00,VWS V13.01,2013-03-25 16:10:00,
2013-03-25 11:13:00,31.1,27.1,30.12,North,0,0.0,0.0,85,0.00,,,0.00,VWS V13.01,2013-03-25 16:13:00,
2013-03-25 11:15:00,30.9,27.0,30.12,North,0,0.0,0.0,85,0.00,,,0.00,VWS V13.01,2013-03-25 16:15:00,
2013-03-25 11:18:00,31.5,27.5,30.12,North,0,0.0,0.0,85,0.00,,,0.00,VWS V13.01,2013-03-25 16:18:00,
2013-03-25 11:20:00,31.1,27.1,30.12,North,0,0.0,0.0,85,0.00,,,0.00,VWS V13.01,2013-03-25 16:20:00,
2013-03-25 11:24:00,31.6,27.7,30.12,North,0,0.0,0.0,85,0.00,,,0.00,VWS V13.01,2013-03-25 16:24:00,
2013-03-25 11:25:00,31.6,27.7,30.12,North,0,0.0,0.0,85,0.00,,,0.00,VWS V13.01,2013-03-25 16:25:00,
2013-03-25 11:29:00,31.1,27.1,30.15,North,0,0.0,0.0,85,0.00,,,0.00,VWS V13.01,2013-03-25 16:29:00,
2013-03-25 11:30:00,31.1,27.1,30.15,North,0,0.0,0.0,85,0.00,,,0.00,VWS V13.01,2013-03-25 16:30:00,
2013-03-25 11:31:00,31.1,27.1,30.15,North,0,0.0,0.0,85,0.00,,,0.00,VWS V13.01,2013-03-25 16:31:00,
2013-03-25 11:34:00,31.5,27.5,30.15,North,0,0.0,0.0,85,0.00,,,0.00,VWS V13.01,2013-03-25 16:34:00,
2013-03-25 11:35:00,31.1,27.1,30.15,North,0,0.0,0.0,85,0.00,,,0.00,VWS V13.01,2013-03-25 16:35:00,
2013-03-25 11:37:00,31.3,27.3,30.15,North,0,0.0,0.0,85,0.00,,,0.00,VWS V13.01,2013-03-25 16:37:00,
2013-03-25 11:39:00,31.6,27.7,30.15,North,0,0.0,0.0,85,0.00,,,0.00,VWS V13.01,2013-03-25 16:39:00,
2013-03-25 11:40:00,31.5,27.5,30.15,North,0,0.0,0.0,85,0.00,,,0.00,VWS V13.01,2013-03-25 16:40:00,
2013-03-25 11:42:00,31.6,27.7,30.15,North,0,0.0,0.0,85,0.00,,,0.00,VWS V13.01,2013-03-25 16:42:00,
2013-03-25 11:44:00,31.3,27.3,30.15,North,0,0.0,0.0,85,0.00,,,0.00,VWS V13.01,2013-03-25 16:44:00,
2013-03-25 11:45:00,31.8,27.8,30.15,North,0,0.0,0.0,85,0.00,,,0.00,VWS V13.01,2013-03-25 16:45:00,
2013-03-25 11:46:00,32.2,28.2,30.15,North,0,0.0,0.0,85,0.00,,,0.00,VWS V13.01,2013-03-25 16:46:00,
2013-03-25 11:47:00,32.4,28.4,30.15,North,0,0.0,0.0,85,0.00,,,0.00,VWS V13.01,2013-03-25 16:47:00,
2013-03-25 11:50:00,32.0,28.0,30.15,North,0,0.0,0.0,85,0.00,,,0.00,VWS V13.01,2013-03-25 16:50:00,
2013-03-25 11:51:00,32.2,28.2,30.15,North,0,0.0,0.0,85,0.00,,,0.00,VWS V13.01,2013-03-25 16:51:00,
2013-03-25 11:52:00,32.2,28.2,30.15,North,0,0.0,0.0,85,0.00,,,0.00,VWS V13.01,2013-03-25 16:52:00,
2013-03-25 11:55:00,32.2,28.2,30.15,North,0,0.0,0.0,85,0.00,,,0.00,VWS V13.01,2013-03-25 16:55:00,
2013-03-25 11:56:00,32.2,28.2,30.15,North,0,0.0,0.0,85,0.00,,,0.00,VWS V13.01,2013-03-25 16:56:00,
2013-03-25 11:57:00,32.2,28.2,30.18,North,0,0.0,0.0,85,0.00,,,0.00,VWS V13.01,2013-03-25 16:57:00,
2013-03-25 12:00:00,32.2,28.2,30.18,North,0,0.0,0.0,85,0.00,,,0.00,VWS V13.01,2013-03-25 17:00:00,
2013-03-25 12:01:00,32.5,28.5,30.18,North,0,0.0,0.0,85,0.00,,,0.00,VWS V13.01,2013-03-25 17:01:00,
2013-03-25 12:02:00,32.2,28.2,30.18,North,0,0.0,0.0,85,0.00,,,0.00,VWS V13.01,2013-03-25 17:02:00,
2013-03-25 12:05:00,31.8,27.8,30.18,North,0,0.0,0.0,85,0.00,,,0.00,VWS V13.01,2013-03-25 17:05:00,
2013-03-25 12:06:00,32.2,28.2,30.18,North,0,0.0,0.0,85,0.00,,,0.00,VWS V13.01,2013-03-25 17:06:00,
2013-03-25 12:07:00,32.5,28.5,30.18,North,0,0.0,0.0,85,0.00,,,0.00,VWS V13.01,2013-03-25 17:07:00,
2013-03-25 12:10:00,32.9,28.9,30.18,North,0,0.0,0.0,85,0.00,,,0.00,VWS V13.01,2013-03-25 17:10:00,
2013-03-25 12:11:00,33.1,29.1,30.18,North,0,0.0,0.0,85,0.00,,,0.00,VWS V13.01,2013-03-25 17:11:00,
2013-03-25 12:12:00,33.4,29.4,30.15,North,0,0.0,0.0,85,0.00,,,0.00,VWS V13.01,2013-03-25 17:12:00,
2013-03-25 12:15:00,34.2,33.4,30.15,North,0,0.0,0.0,97,0.00,,,0.00,VWS V13.01,2013-03-25 17:15:00,
2013-03-25 12:17:00,33.8,33.0,30.15,North,0,0.0,0.0,97,0.00,,,0.00,VWS V13.01,2013-03-25 17:17:00,
2013-03-25 12:20:00,34.2,33.4,30.15,North,0,0.0,0.0,97,0.00,,,0.00,VWS V13.01,2013-03-25 17:20:00,
2013-03-25 12:21:00,34.2,33.4,30.15,North,0,0.0,0.0,97,0.00,,,0.00,VWS V13.01,2013-03-25 17:21:00,
2013-03-25 12:22:00,33.6,29.6,30.15,North,0,0.0,0.0,85,0.00,,,0.00,VWS V13.01,2013-03-25 17:22:00,
2013-03-25 12:26:00,33.4,29.4,30.15,North,0,0.0,0.0,85,0.00,,,0.00,VWS V13.01,2013-03-25 17:26:00,
2013-03-25 12:27:00,33.6,29.6,30.18,North,0,0.0,0.0,85,0.00,,,0.00,VWS V13.01,2013-03-25 17:27:00,
2013-03-25 12:31:00,32.7,28.7,30.18,North,0,0.0,0.0,85,0.00,,,0.00,VWS V13.01,2013-03-25 17:31:00,
2013-03-25 12:32:00,32.2,28.2,30.18,North,0,0.0,0.0,85,0.00,,,0.00,VWS V13.01,2013-03-25 17:32:00,
2013-03-25 12:33:00,32.2,28.2,30.18,North,0,0.0,0.0,85,0.00,,,0.00,VWS V13.01,2013-03-25 17:33:00,
2013-03-25 12:37:00,32.5,28.5,30.18,North,0,0.0,0.0,85,0.00,,,0.00,VWS V13.01,2013-03-25 17:37:00,
2013-03-25 12:38:00,32.9,28.9,30.18,North,0,0.0,0.0,85,0.00,,,0.00,VWS V13.01,2013-03-25 17:38:00,
2013-03-25 12:42:00,33.3,29.2,30.18,North,0,0.0,0.0,85,0.00,,,0.00,VWS V13.01,2013-03-25 17:42:00,
2013-03-25 12:43:00,33.3,29.2,30.18,North,0,0.0,0.0,85,0.00,,,0.00,VWS V13.01,2013-03-25 17:43:00,
2013-03-25 12:47:00,32.9,28.9,30.18,North,0,0.0,0.0,85,0.00,,,0.00,VWS V13.01,2013-03-25 17:47:00,
2013-03-25 12:48:00,32.9,28.9,30.18,North,0,0.0,0.0,85,0.00,,,0.00,VWS V13.01,2013-03-25 17:48:00,
2013-03-25 12:52:00,33.4,29.4,30.18,North,0,0.0,0.0,85,0.00,,,0.00,VWS V13.01,2013-03-25 17:52:00,
2013-03-25 12:53:00,33.4,29.4,30.18,North,0,0.0,0.0,85,0.00,,,0.00,VWS V13.01,2013-03-25 17:53:00,
2013-03-25 12:57:00,33.6,29.6,30.18,North,0,0.0,0.0,85,0.00,,,0.00,VWS V13.01,2013-03-25 17:57:00,
2013-03-25 12:58:00,33.4,29.4,30.18,North,0,0.0,0.0,85,0.00,,,0.00,VWS V13.01,2013-03-25 17:58:00,
2013-03-25 12:59:00,33.3,29.2,30.18,North,0,0.0,0.0,85,0.00,,,0.00,VWS V13.01,2013-03-25 17:59:00,
2013-03-25 13:03:00,33.6,29.6,30.18,North,0,0.0,0.0,85,0.00,,,0.00,VWS V13.01,2013-03-25 18:03:00,
2013-03-25 13:04:00,33.6,29.6,30.18,North,0,0.0,0.0,85,0.00,,,0.00,VWS V13.01,2013-03-25 18:04:00,
2013-03-25 13:08:00,34.0,28.2,30.18,North,0,0.0,0.0,79,0.00,,,0.00,VWS V13.01,2013-03-25 18:08:00,
2013-03-25 13:09:00,33.8,28.0,30.18,North,0,0.0,0.0,79,0.00,,,0.00,VWS V13.01,2013-03-25 18:09:00,
2013-03-25 13:13:00,33.3,29.2,30.18,North,0,0.0,0.0,85,0.00,,,0.00,VWS V13.01,2013-03-25 18:13:00,
2013-03-25 13:14:00,33.3,29.2,30.18,North,0,0.0,0.0,85,0.00,,,0.00,VWS V13.01,2013-03-25 18:14:00,
2013-03-25 13:18:00,34.7,33.9,30.18,North,0,0.0,0.0,97,0.00,,,0.00,VWS V13.01,2013-03-25 18:18:00,
2013-03-25 13:19:00,34.7,33.9,30.18,North,0,0.0,0.0,97,0.00,,,0.00,VWS V13.01,2013-03-25 18:19:00,
2013-03-25 13:23:00,34.0,28.2,30.18,North,0,0.0,0.0,79,0.00,,,0.00,VWS V13.01,2013-03-25 18:23:00,
2013-03-25 13:24:00,34.0,28.2,30.18,North,0,0.0,0.0,79,0.00,,,0.00,VWS V13.01,2013-03-25 18:24:00,
2013-03-25 13:28:00,33.6,29.6,30.18,North,0,0.0,0.0,85,0.00,,,0.00,VWS V13.01,2013-03-25 18:28:00,
2013-03-25 13:29:00,33.1,29.1,30.18,North,0,0.0,0.0,85,0.00,,,0.00,VWS V13.01,2013-03-25 18:29:00,
2013-03-25 13:33:00,33.3,29.2,30.18,North,0,0.0,0.0,85,0.00,,,0.00,VWS V13.01,2013-03-25 18:33:00,
2013-03-25 13:34:00,33.1,29.1,30.18,North,0,0.0,0.0,85,0.00,,,0.00,VWS V13.01,2013-03-25 18:34:00,
2013-03-25 13:39:00,34.3,28.5,30.18,North,0,0.0,0.0,79,0.00,,,0.00,VWS V13.01,2013-03-25 18:39:00,
2013-03-25 13:40:00,34.0,28.2,30.18,North,0,0.0,0.0,79,0.00,,,0.00,VWS V13.01,2013-03-25 18:40:00,
2013-03-25 13:44:00,34.0,28.2,30.18,North,0,0.0,0.0,79,0.00,,,0.00,VWS V13.01,2013-03-25 18:44:00,
2013-03-25 13:45:00,33.6,29.6,30.18,North,0,0.0,0.0,85,0.00,,,0.00,VWS V13.01,2013-03-25 18:45:00,
2013-03-25 13:49:00,34.0,28.2,30.18,North,0,0.0,0.0,79,0.00,,,0.00,VWS V13.01,2013-03-25 18:49:00,
2013-03-25 13:50:00,33.6,29.6,30.18,North,0,0.0,0.0,85,0.00,,,0.00,VWS V13.01,2013-03-25 18:50:00,
2013-03-25 13:54:00,34.3,28.5,30.18,North,0,0.0,0.0,79,0.00,,,0.00,VWS V13.01,2013-03-25 18:54:00,
2013-03-25 13:55:00,34.9,34.1,30.18,North,0,0.0,0.0,97,0.00,,,0.00,VWS V13.01,2013-03-25 18:55:00,
2013-03-25 13:59:00,33.6,29.6,30.18,North,0,0.0,0.0,85,0.00,,,0.00,VWS V13.01,2013-03-25 18:59:00,
2013-03-25 14:00:00,34.3,33.6,30.18,North,0,0.0,0.0,97,0.00,,,0.00,VWS V13.01,2013-03-25 19:00:00,
2013-03-25 14:04:00,34.3,33.6,30.18,North,0,0.0,0.0,97,0.00,,,0.00,VWS V13.01,2013-03-25 19:04:00,
2013-03-25 14:05:00,34.5,33.8,30.18,North,0,0.0,0.0,97,0.00,,,0.00,VWS V13.01,2013-03-25 19:05:00,
2013-03-25 14:09:00,34.7,33.9,30.18,North,0,0.0,0.0,97,0.00,,,0.00,VWS V13.01,2013-03-25 19:09:00,
2013-03-25 14:10:00,34.3,33.6,30.18,North,0,0.0,0.0,97,0.00,,,0.00,VWS V13.01,2013-03-25 19:10:00,
2013-03-25 14:14:00,34.7,33.9,30.18,North,0,0.0,0.0,97,0.00,,,0.00,VWS V13.01,2013-03-25 19:14:00,
2013-03-25 14:15:00,34.9,34.1,30.18,North,0,0.0,0.0,97,0.00,,,0.00,VWS V13.01,2013-03-25 19:15:00,
2013-03-25 14:19:00,34.3,33.6,30.18,North,0,0.0,0.0,97,0.00,,,0.00,VWS V13.01,2013-03-25 19:19:00,
2013-03-25 14:20:00,33.4,29.4,30.18,North,0,0.0,0.0,85,0.00,,,0.00,VWS V13.01,2013-03-25 19:20:00,
2013-03-25 14:24:00,33.6,29.6,30.18,North,0,0.0,0.0,85,0.00,,,0.00,VWS V13.01,2013-03-25 19:24:00,
2013-03-25 14:25:00,34.2,28.3,30.18,North,0,0.0,0.0,79,0.00,,,0.00,VWS V13.01,2013-03-25 19:25:00,
2013-03-25 14:29:00,34.9,29.0,30.18,North,0,0.0,0.0,79,0.00,,,0.00,VWS V13.01,2013-03-25 19:29:00,
2013-03-25 14:30:00,34.7,28.9,30.18,North,0,0.0,0.0,79,0.00,,,0.00,VWS V13.01,2013-03-25 19:30:00,
2013-03-25 14:34:00,34.7,28.9,30.18,North,0,0.0,0.0,79,0.00,,,0.00,VWS V13.01,2013-03-25 19:34:00,
2013-03-25 14:35:00,34.9,29.0,30.18,North,0,0.0,0.0,79,0.00,,,0.00,VWS V13.01,2013-03-25 19:35:00,
2013-03-25 14:39:00,34.5,28.7,30.18,North,0,0.0,0.0,79,0.00,,,0.00,VWS V13.01,2013-03-25 19:39:00,
2013-03-25 14:40:00,34.3,28.5,30.18,North,0,0.0,0.0,79,0.00,,,0.00,VWS V13.01,2013-03-25 19:40:00,
2013-03-25 14:44:00,34.3,28.5,30.18,North,0,0.0,0.0,79,0.00,,,0.00,VWS V13.01,2013-03-25 19:44:00,
2013-03-25 14:45:00,34.0,28.2,30.18,North,0,0.0,0.0,79,0.00,,,0.00,VWS V13.01,2013-03-25 19:45:00,
2013-03-25 14:49:00,33.6,29.6,30.18,North,0,0.0,0.0,85,0.00,,,0.00,VWS V13.01,2013-03-25 19:49:00,
2013-03-25 14:50:00,33.6,29.6,30.18,North,0,0.0,0.0,85,0.00,,,0.00,VWS V13.01,2013-03-25 19:50:00,
2013-03-25 14:54:00,33.8,28.0,30.18,North,0,0.0,0.0,79,0.00,,,0.00,VWS V13.01,2013-03-25 19:54:00,
2013-03-25 14:55:00,33.8,28.0,30.18,North,0,0.0,0.0,79,0.00,,,0.00,VWS V13.01,2013-03-25 19:55:00,
2013-03-25 15:00:00,34.0,28.2,30.18,North,0,0.0,0.0,79,0.00,,,0.00,VWS V13.01,2013-03-25 20:00:00,
2013-03-25 15:05:00,33.3,29.2,30.18,North,0,0.0,0.0,85,0.00,,,0.00,VWS V13.01,2013-03-25 20:05:00,
2013-03-25 15:10:00,33.1,29.1,30.18,North,0,0.0,0.0,85,0.00,,,0.00,VWS V13.01,2013-03-25 20:10:00,
2013-03-25 15:15:00,33.8,28.0,30.18,North,0,0.0,0.0,79,0.00,,,0.00,VWS V13.01,2013-03-25 20:15:00,
2013-03-25 15:20:00,33.3,29.2,30.18,North,0,0.0,0.0,85,0.00,,,0.00,VWS V13.01,2013-03-25 20:20:00,
2013-03-25 15:25:00,33.3,29.2,30.18,North,0,0.0,0.0,85,0.00,,,0.00,VWS V13.01,2013-03-25 20:25:00,
2013-03-25 15:30:00,33.1,29.1,30.18,North,0,0.0,0.0,85,0.00,,,0.00,VWS V13.01,2013-03-25 20:30:00,
2013-03-25 15:35:00,32.5,28.5,30.18,North,0,0.0,0.0,85,0.00,,,0.00,VWS V13.01,2013-03-25 20:35:00,
2013-03-25 15:40:00,33.6,29.6,30.18,North,0,0.0,0.0,85,0.00,,,0.00,VWS V13.01,2013-03-25 20:40:00,
2013-03-25 15:45:00,33.6,29.6,30.21,North,0,0.0,0.0,85,0.00,,,0.00,VWS V13.01,2013-03-25 20:45:00,
2013-03-25 15:50:00,33.3,29.2,30.21,North,0,0.0,0.0,85,0.00,,,0.00,VWS V13.01,2013-03-25 20:50:00,
2013-03-25 15:51:00,32.9,28.9,30.21,North,0,0.0,0.0,85,0.00,,,0.00,VWS V13.01,2013-03-25 20:51:00,
2013-03-25 15:55:00,32.9,28.9,30.21,North,0,0.0,0.0,85,0.00,,,0.00,VWS V13.01,2013-03-25 20:55:00,
2013-03-25 15:56:00,33.1,29.1,30.21,North,0,0.0,0.0,85,0.00,,,0.00,VWS V13.01,2013-03-25 20:56:00,
2013-03-25 16:00:00,32.9,28.9,30.21,North,0,0.0,0.0,85,0.00,,,0.00,VWS V13.01,2013-03-25 21:00:00,
2013-03-25 16:01:00,32.9,28.9,30.21,North,0,0.0,0.0,85,0.00,,,0.00,VWS V13.01,2013-03-25 21:01:00,
2013-03-25 16:05:00,32.2,28.2,30.21,North,0,0.0,0.0,85,0.00,,,0.00,VWS V13.01,2013-03-25 21:05:00,
2013-03-25 16:06:00,32.4,28.4,30.21,North,0,0.0,0.0,85,0.00,,,0.00,VWS V13.01,2013-03-25 21:06:00,
2013-03-25 16:10:00,32.2,28.2,30.21,North,0,0.0,0.0,85,0.00,,,0.00,VWS V13.01,2013-03-25 21:10:00,
2013-03-25 16:11:00,32.2,28.2,30.21,North,0,0.0,0.0,85,0.00,,,0.00,VWS V13.01,2013-03-25 21:11:00,
2013-03-25 16:15:00,32.9,28.9,30.21,North,0,0.0,0.0,85,0.00,,,0.00,VWS V13.01,2013-03-25 21:15:00,
2013-03-25 16:16:00,32.9,28.9,30.21,North,0,0.0,0.0,85,0.00,,,0.00,VWS V13.01,2013-03-25 21:16:00,
2013-03-25 16:20:00,32.4,28.4,30.21,North,0,0.0,0.0,85,0.00,,,0.00,VWS V13.01,2013-03-25 21:20:00,
2013-03-25 16:21:00,32.4,28.4,30.21,North,0,0.0,0.0,85,0.00,,,0.00,VWS V13.01,2013-03-25 21:21:00,
2013-03-25 16:25:00,32.0,28.0,30.21,North,0,0.0,0.0,85,0.00,,,0.00,VWS V13.01,2013-03-25 21:25:00,
2013-03-25 16:26:00,32.0,28.0,30.21,North,0,0.0,0.0,85,0.00,,,0.00,VWS V13.01,2013-03-25 21:26:00,
2013-03-25 16:30:00,32.0,28.0,30.21,North,0,0.0,0.0,85,0.00,,,0.00,VWS V13.01,2013-03-25 21:30:00,
2013-03-25 16:31:00,32.0,28.0,30.21,North,0,0.0,0.0,85,0.00,,,0.00,VWS V13.01,2013-03-25 21:31:00,
2013-03-25 16:35:00,32.0,28.0,30.21,North,0,0.0,0.0,85,0.00,,,0.00,VWS V13.01,2013-03-25 21:35:00,
2013-03-25 16:36:00,32.0,28.0,30.21,North,0,0.0,0.0,85,0.00,,,0.00,VWS V13.01,2013-03-25 21:36:00,
2013-03-25 16:37:00,32.0,28.0,30.21,North,0,0.0,0.0,85,0.00,,,0.00,VWS V13.01,2013-03-25 21:37:00,
2013-03-25 16:40:00,32.5,28.5,30.21,North,0,0.0,0.0,85,0.00,,,0.00,VWS V13.01,2013-03-25 21:40:00,
2013-03-25 16:41:00,32.5,28.5,30.21,North,0,0.0,0.0,85,0.00,,,0.00,VWS V13.01,2013-03-25 21:41:00,
2013-03-25 16:42:00,32.4,28.4,30.21,North,0,0.0,0.0,85,0.00,,,0.00,VWS V13.01,2013-03-25 21:42:00,
2013-03-25 16:45:00,32.5,28.5,30.21,North,0,0.0,0.0,85,0.00,,,0.00,VWS V13.01,2013-03-25 21:45:00,
2013-03-25 16:46:00,32.5,28.5,30.21,North,0,0.0,0.0,85,0.00,,,0.00,VWS V13.01,2013-03-25 21:46:00,
2013-03-25 16:47:00,32.5,28.5,30.21,North,0,0.0,0.0,85,0.00,,,0.00,VWS V13.01,2013-03-25 21:47:00,
2013-03-25 16:50:00,32.4,28.4,30.21,North,0,0.0,0.0,85,0.00,,,0.00,VWS V13.01,2013-03-25 21:50:00,
2013-03-25 16:51:00,32.4,28.4,30.21,North,0,0.0,0.0,85,0.00,,,0.00,VWS V13.01,2013-03-25 21:51:00,
2013-03-25 16:52:00,32.2,28.2,30.21,North,0,0.0,0.0,85,0.00,,,0.00,VWS V13.01,2013-03-25 21:52:00,
2013-03-25 16:56:00,31.6,27.7,30.21,North,0,0.0,0.0,85,0.00,,,0.00,VWS V13.01,2013-03-25 21:56:00,
2013-03-25 16:57:00,32.2,28.2,30.21,North,0,0.0,0.0,85,0.00,,,0.00,VWS V13.01,2013-03-25 21:57:00,
2013-03-25 17:01:00,32.4,28.4,30.21,North,0,0.0,0.0,85,0.00,,,0.00,VWS V13.01,2013-03-25 22:01:00,
2013-03-25 17:03:00,32.9,28.9,30.21,North,0,0.0,0.0,85,0.00,,,0.00,VWS V13.01,2013-03-25 22:03:00,
2013-03-25 17:06:00,32.9,28.9,30.21,North,0,0.0,0.0,85,0.00,,,0.00,VWS V13.01,2013-03-25 22:06:00,
2013-03-25 17:08:00,33.3,29.2,30.21,North,0,0.0,0.0,85,0.00,,,0.00,VWS V13.01,2013-03-25 22:08:00,
2013-03-25 17:11:00,33.1,29.1,30.21,North,0,0.0,0.0,85,0.00,,,0.00,VWS V13.01,2013-03-25 22:11:00,
2013-03-25 17:13:00,33.4,29.4,30.21,North,0,0.0,0.0,85,0.00,,,0.00,VWS V13.01,2013-03-25 22:13:00,
2013-03-25 17:16:00,32.9,28.9,30.21,North,0,0.0,0.0,85,0.00,,,0.00,VWS V13.01,2013-03-25 22:16:00,
2013-03-25 17:18:00,32.7,28.7,30.21,North,0,0.0,0.0,85,0.00,,,0.00,VWS V13.01,2013-03-25 22:18:00,
2013-03-25 17:21:00,32.7,28.7,30.21,North,0,0.0,0.0,85,0.00,,,0.00,VWS V13.01,2013-03-25 22:21:00,
2013-03-25 17:23:00,33.3,29.2,30.21,North,0,0.0,0.0,85,0.00,,,0.00,VWS V13.01,2013-03-25 22:23:00,
2013-03-25 17:26:00,33.3,29.2,30.21,North,0,0.0,0.0,85,0.00,,,0.00,VWS V13.01,2013-03-25 22:26:00,
2013-03-25 17:28:00,33.6,29.6,30.24,North,0,0.0,0.0,85,0.00,,,0.00,VWS V13.01,2013-03-25 22:28:00,
2013-03-25 17:31:00,33.3,29.2,30.24,North,0,0.0,0.0,85,0.00,,,0.00,VWS V13.01,2013-03-25 22:31:00,
2013-03-25 17:32:00,32.9,28.9,30.24,North,0,0.0,0.0,85,0.00,,,0.00,VWS V13.01,2013-03-25 22:32:00,
2013-03-25 17:33:00,32.9,28.9,30.24,North,0,0.0,0.0,85,0.00,,,0.00,VWS V13.01,2013-03-25 22:33:00,
2013-03-25 17:36:00,33.1,29.1,30.24,North,0,0.0,0.0,85,0.00,,,0.00,VWS V13.01,2013-03-25 22:36:00,
2013-03-25 17:37:00,32.7,28.7,30.24,North,0,0.0,0.0,85,0.00,,,0.00,VWS V13.01,2013-03-25 22:37:00,
2013-03-25 17:38:00,32.5,28.5,30.24,North,0,0.0,0.0,85,0.00,,,0.00,VWS V13.01,2013-03-25 22:38:00,
2013-03-25 17:41:00,32.5,28.5,30.24,North,0,0.0,0.0,85,0.00,,,0.00,VWS V13.01,2013-03-25 22:41:00,
2013-03-25 17:42:00,32.5,28.5,30.24,North,0,0.0,0.0,85,0.00,,,0.00,VWS V13.01,2013-03-25 22:42:00,
2013-03-25 17:43:00,32.4,28.4,30.24,North,0,0.0,0.0,85,0.00,,,0.00,VWS V13.01,2013-03-25 22:43:00,
2013-03-25 17:47:00,32.2,28.2,30.24,North,0,0.0,0.0,85,0.00,,,0.00,VWS V13.01,2013-03-25 22:47:00,
2013-03-25 17:48:00,32.0,28.0,30.24,North,0,0.0,0.0,85,0.00,,,0.00,VWS V13.01,2013-03-25 22:48:00,
2013-03-25 17:49:00,31.8,27.8,30.24,North,0,0.0,0.0,85,0.00,,,0.00,VWS V13.01,2013-03-25 22:49:00,
2013-03-25 17:52:00,31.8,31.1,30.24,North,0,0.0,0.0,97,0.00,,,0.00,VWS V13.01,2013-03-25 22:52:00,
2013-03-25 17:53:00,31.8,31.1,30.24,North,0,0.0,0.0,97,0.00,,,0.00,VWS V13.01,2013-03-25 22:53:00,
2013-03-25 17:54:00,32.0,31.2,30.24,North,0,0.0,0.0,97,0.00,,,0.00,VWS V13.01,2013-03-25 22:54:00,
2013-03-25 17:57:00,32.2,31.4,30.24,North,0,0.0,0.0,97,0.00,,,0.00,VWS V13.01,2013-03-25 22:57:00,
2013-03-25 17:58:00,32.4,31.6,30.24,North,0,0.0,0.0,97,0.00,,,0.00,VWS V13.01,2013-03-25 22:58:00,
2013-03-25 17:59:00,32.4,31.6,30.24,North,0,0.0,0.0,97,0.00,,,0.00,VWS V13.01,2013-03-25 22:59:00,
2013-03-25 18:02:00,33.1,32.3,30.24,North,0,0.0,0.0,97,0.00,,,0.00,VWS V13.01,2013-03-25 23:02:00,
2013-03-25 18:03:00,32.9,28.9,30.24,North,0,0.0,0.0,85,0.00,,,0.00,VWS V13.01,2013-03-25 23:03:00,
2013-03-25 18:04:00,32.7,28.7,30.24,North,0,0.0,0.0,85,0.00,,,0.00,VWS V13.01,2013-03-25 23:04:00,
2013-03-25 18:07:00,32.2,28.2,30.24,North,0,0.0,0.0,85,0.00,,,0.00,VWS V13.01,2013-03-25 23:07:00,
2013-03-25 18:08:00,32.5,31.8,30.24,North,0,0.0,0.0,97,0.00,,,0.00,VWS V13.01,2013-03-25 23:08:00,
2013-03-25 18:09:00,32.7,32.0,30.24,North,0,0.0,0.0,97,0.00,,,0.00,VWS V13.01,2013-03-25 23:09:00,
2013-03-25 18:12:00,32.2,28.2,30.24,North,0,0.0,0.0,85,0.00,,,0.00,VWS V13.01,2013-03-25 23:12:00,
2013-03-25 18:13:00,32.4,28.4,30.24,North,0,0.0,0.0,85,0.00,,,0.00,VWS V13.01,2013-03-25 23:13:00,
2013-03-25 18:14:00,32.4,28.4,30.24,North,0,0.0,0.0,85,0.00,,,0.00,VWS V13.01,2013-03-25 23:14:00,
2013-03-25 18:17:00,32.5,28.5,30.24,North,0,0.0,0.0,85,0.00,,,0.00,VWS V13.01,2013-03-25 23:17:00,
2013-03-25 18:18:00,32.5,28.5,30.24,North,0,0.0,0.0,85,0.00,,,0.00,VWS V13.01,2013-03-25 23:18:00,
2013-03-25 18:19:00,32.5,28.5,30.24,North,0,0.0,0.0,85,0.00,,,0.00,VWS V13.01,2013-03-25 23:19:00,
2013-03-25 18:23:00,32.5,28.5,30.24,North,0,0.0,0.0,85,0.00,,,0.00,VWS V13.01,2013-03-25 23:23:00,
2013-03-25 18:24:00,32.4,28.4,30.24,North,0,0.0,0.0,85,0.00,,,0.00,VWS V13.01,2013-03-25 23:24:00,
2013-03-25 18:28:00,32.5,28.5,30.24,North,0,0.0,0.0,85,0.00,,,0.00,VWS V13.01,2013-03-25 23:28:00,
2013-03-25 18:29:00,32.5,28.5,30.24,North,0,0.0,0.0,85,0.00,,,0.00,VWS V13.01,2013-03-25 23:29:00,
2013-03-25 18:33:00,32.5,28.5,30.24,North,0,0.0,0.0,85,0.00,,,0.00,VWS V13.01,2013-03-25 23:33:00,
2013-03-25 18:34:00,32.4,28.4,30.24,North,0,0.0,0.0,85,0.00,,,0.00,VWS V13.01,2013-03-25 23:34:00,
2013-03-25 18:38:00,32.2,28.2,30.24,North,0,0.0,0.0,85,0.00,,,0.00,VWS V13.01,2013-03-25 23:38:00,
2013-03-25 18:39:00,32.0,28.0,30.24,North,0,0.0,0.0,85,0.00,,,0.00,VWS V13.01,2013-03-25 23:39:00,
2013-03-25 18:43:00,32.0,28.0,30.24,North,0,0.0,0.0,85,0.00,,,0.00,VWS V13.01,2013-03-25 23:43:00,
2013-03-25 18:44:00,32.0,28.0,30.24,North,0,0.0,0.0,85,0.00,,,0.00,VWS V13.01,2013-03-25 23:44:00,
2013-03-25 18:48:00,32.0,28.0,30.24,North,0,0.0,0.0,85,0.00,,,0.00,VWS V13.01,2013-03-25 23:48:00,
2013-03-25 18:49:00,32.0,28.0,30.24,North,0,0.0,0.0,85,0.00,,,0.00,VWS V13.01,2013-03-25 23:49:00,
2013-03-25 18:53:00,32.0,28.0,30.24,North,0,0.0,0.0,85,0.00,,,0.00,VWS V13.01,2013-03-25 23:53:00,
2013-03-25 18:54:00,32.0,28.0,30.24,North,0,0.0,0.0,85,0.00,,,0.00,VWS V13.01,2013-03-25 23:54:00,
2013-03-25 18:58:00,31.8,27.8,30.24,North,0,0.0,0.0,85,0.00,,,0.00,VWS V13.01,2013-03-25 23:58:00,
2013-03-25 18:59:00,31.8,27.8,30.24,North,0,0.0,0.0,85,0.00,,,0.00,VWS V13.01,2013-03-25 23:59:00,
2013-03-25 19:03:00,31.8,27.8,30.24,North,0,0.0,0.0,85,0.00,,,0.00,VWS V13.01,2013-03-26 00:03:00,
2013-03-25 19:04:00,31.8,27.8,30.24,North,0,0.0,0.0,85,0.00,,,0.00,VWS V13.01,2013-03-26 00:04:00,
2013-03-25 19:08:00,31.8,27.8,30.24,North,0,0.0,0.0,85,0.00,,,0.00,VWS V13.01,2013-03-26 00:08:00,
2013-03-25 19:09:00,31.8,27.8,30.24,North,0,0.0,0.0,85,0.00,,,0.00,VWS V13.01,2013-03-26 00:09:00,
2013-03-25 19:13:00,31.6,27.7,30.27,North,0,0.0,0.0,85,0.00,,,0.00,VWS V13.01,2013-03-26 00:13:00,
2013-03-25 19:14:00,31.5,27.5,30.27,North,0,0.0,0.0,85,0.00,,,0.00,VWS V13.01,2013-03-26 00:14:00,
2013-03-25 19:18:00,31.3,27.3,30.27,North,0,0.0,0.0,85,0.00,,,0.00,VWS V13.01,2013-03-26 00:18:00,
2013-03-25 19:19:00,31.3,27.3,30.27,North,0,0.0,0.0,85,0.00,,,0.00,VWS V13.01,2013-03-26 00:19:00,
2013-03-25 19:23:00,31.3,27.3,30.27,North,0,0.0,0.0,85,0.00,,,0.00,VWS V13.01,2013-03-26 00:23:00,
2013-03-25 19:24:00,31.5,27.5,30.27,North,0,0.0,0.0,85,0.00,,,0.00,VWS V13.01,2013-03-26 00:24:00,
2013-03-25 19:28:00,31.5,27.5,30.27,North,0,0.0,0.0,85,0.00,,,0.00,VWS V13.01,2013-03-26 00:28:00,
2013-03-25 19:29:00,31.6,27.7,30.27,North,0,0.0,0.0,85,0.00,,,0.00,VWS V13.01,2013-03-26 00:29:00,
2013-03-25 19:33:00,31.5,27.5,30.27,North,0,0.0,0.0,85,0.00,,,0.00,VWS V13.01,2013-03-26 00:33:00,
2013-03-25 19:34:00,31.5,27.5,30.27,North,0,0.0,0.0,85,0.00,,,0.00,VWS V13.01,2013-03-26 00:34:00,
2013-03-25 19:35:00,31.5,27.5,30.27,North,0,0.0,0.0,85,0.00,,,0.00,VWS V13.01,2013-03-26 00:35:00,
2013-03-25 19:38:00,31.3,27.3,30.27,North,0,0.0,0.0,85,0.00,,,0.00,VWS V13.01,2013-03-26 00:38:00,
2013-03-25 19:39:00,31.5,27.5,30.27,North,0,0.0,0.0,85,0.00,,,0.00,VWS V13.01,2013-03-26 00:39:00,
2013-03-25 19:40:00,31.3,27.3,30.27,North,0,0.0,0.0,85,0.00,,,0.00,VWS V13.01,2013-03-26 00:40:00,
2013-03-25 19:43:00,31.3,27.3,30.24,North,0,0.0,0.0,85,0.00,,,0.00,VWS V13.01,2013-03-26 00:43:00,
2013-03-25 19:44:00,31.3,27.3,30.24,North,0,0.0,0.0,85,0.00,,,0.00,VWS V13.01,2013-03-26 00:44:00,
2013-03-25 19:45:00,31.3,27.3,30.24,North,0,0.0,0.0,85,0.00,,,0.00,VWS V13.01,2013-03-26 00:45:00,
2013-03-25 19:48:00,31.1,27.1,30.24,North,0,0.0,0.0,85,0.00,,,0.00,VWS V13.01,2013-03-26 00:48:00,
2013-03-25 19:49:00,31.1,27.1,30.24,North,0,0.0,0.0,85,0.00,,,0.00,VWS V13.01,2013-03-26 00:49:00,
2013-03-25 19:50:00,31.1,27.1,30.24,North,0,0.0,0.0,85,0.00,,,0.00,VWS V13.01,2013-03-26 00:50:00,
2013-03-25 19:53:00,31.3,27.3,30.24,North,0,0.0,0.0,85,0.00,,,0.00,VWS V13.01,2013-03-26 00:53:00,
2013-03-25 19:54:00,31.1,27.1,30.24,North,0,0.0,0.0,85,0.00,,,0.00,VWS V13.01,2013-03-26 00:54:00,
2013-03-25 19:55:00,31.1,27.1,30.24,North,0,0.0,0.0,85,0.00,,,0.00,VWS V13.01,2013-03-26 00:55:00,
2013-03-25 19:58:00,31.1,27.1,30.27,North,0,0.0,0.0,85,0.00,,,0.00,VWS V13.01,2013-03-26 00:58:00,
2013-03-25 19:59:00,31.1,27.1,30.27,North,0,0.0,0.0,85,0.00,,,0.00,VWS V13.01,2013-03-26 00:59:00,
2013-03-25 20:00:00,31.3,27.3,30.27,North,0,0.0,0.0,85,0.00,,,0.00,VWS V13.01,2013-03-26 01:00:00,
2013-03-25 20:03:00,30.9,27.0,30.27,North,0,0.0,0.0,85,0.00,,,0.00,VWS V13.01,2013-03-26 01:03:00,
2013-03-25 20:04:00,30.9,27.0,30.27,North,0,0.0,0.0,85,0.00,,,0.00,VWS V13.01,2013-03-26 01:04:00,
2013-03-25 20:05:00,31.1,27.1,30.27,North,0,0.0,0.0,85,0.00,,,0.00,VWS V13.01,2013-03-26 01:05:00,
2013-03-25 20:09:00,30.7,26.8,30.27,North,0,0.0,0.0,85,0.00,,,0.00,VWS V13.01,2013-03-26 01:09:00,
2013-03-25 20:10:00,30.7,26.8,30.27,North,0,0.0,0.0,85,0.00,,,0.00,VWS V13.01,2013-03-26 01:10:00,
2013-03-25 20:14:00,30.9,27.0,30.27,North,0,0.0,0.0,85,0.00,,,0.00,VWS V13.01,2013-03-26 01:14:00,
2013-03-25 20:15:00,30.7,26.8,30.27,North,0,0.0,0.0,85,0.00,,,0.00,VWS V13.01,2013-03-26 01:15:00,
2013-03-25 20:19:00,30.7,26.8,30.27,North,0,0.0,0.0,85,0.00,,,0.00,VWS V13.01,2013-03-26 01:19:00,
2013-03-25 20:20:00,30.7,26.8,30.27,North,0,0.0,0.0,85,0.00,,,0.00,VWS V13.01,2013-03-26 01:20:00,
2013-03-25 20:24:00,30.7,26.8,30.27,North,0,0.0,0.0,85,0.00,,,0.00,VWS V13.01,2013-03-26 01:24:00,
2013-03-25 20:25:00,30.7,26.8,30.27,North,0,0.0,0.0,85,0.00,,,0.00,VWS V13.01,2013-03-26 01:25:00,
2013-03-25 20:29:00,30.7,26.8,30.30,North,0,0.0,0.0,85,0.00,,,0.00,VWS V13.01,2013-03-26 01:29:00,
2013-03-25 20:30:00,30.6,26.6,30.30,North,0,0.0,0.0,85,0.00,,,0.00,VWS V13.01,2013-03-26 01:30:00,
2013-03-25 20:34:00,30.4,26.4,30.30,North,0,0.0,0.0,85,0.00,,,0.00,VWS V13.01,2013-03-26 01:34:00,
2013-03-25 20:35:00,30.4,26.4,30.30,North,0,0.0,0.0,85,0.00,,,0.00,VWS V13.01,2013-03-26 01:35:00,
2013-03-25 20:39:00,30.4,26.4,30.30,North,0,0.0,0.0,85,0.00,,,0.00,VWS V13.01,2013-03-26 01:39:00,
2013-03-25 20:40:00,30.4,26.4,30.30,North,0,0.0,0.0,85,0.00,,,0.00,VWS V13.01,2013-03-26 01:40:00,
2013-03-25 20:44:00,30.4,26.4,30.30,North,0,0.0,0.0,85,0.00,,,0.00,VWS V13.01,2013-03-26 01:44:00,
2013-03-25 20:45:00,30.4,26.4,30.30,North,0,0.0,0.0,85,0.00,,,0.00,VWS V13.01,2013-03-26 01:45:00,
2013-03-25 20:49:00,30.2,26.2,30.30,North,0,0.0,0.0,85,0.00,,,0.00,VWS V13.01,2013-03-26 01:49:00,
2013-03-25 20:50:00,30.4,26.4,30.30,North,0,0.0,0.0,85,0.00,,,0.00,VWS V13.01,2013-03-26 01:50:00,
2013-03-25 20:54:00,30.2,26.2,30.30,North,0,0.0,0.0,85,0.00,,,0.00,VWS V13.01,2013-03-26 01:54:00,
2013-03-25 20:55:00,30.2,26.2,30.30,North,0,0.0,0.0,85,0.00,,,0.00,VWS V13.01,2013-03-26 01:55:00,
2013-03-25 20:59:00,30.2,26.2,30.30,North,0,0.0,0.0,85,0.00,,,0.00,VWS V13.01,2013-03-26 01:59:00,
2013-03-25 21:00:00,30.2,26.2,30.30,North,0,0.0,0.0,85,0.00,,,0.00,VWS V13.01,2013-03-26 02:00:00,
2013-03-25 21:04:00,30.0,26.1,30.30,North,0,0.0,0.0,85,0.00,,,0.00,VWS V13.01,2013-03-26 02:04:00,
2013-03-25 21:05:00,29.8,25.9,30.30,North,0,0.0,0.0,85,0.00,,,0.00,VWS V13.01,2013-03-26 02:05:00,
2013-03-25 21:09:00,30.0,26.1,30.30,North,0,0.0,0.0,85,0.00,,,0.00,VWS V13.01,2013-03-26 02:09:00,
2013-03-25 21:10:00,29.8,25.9,30.30,North,0,0.0,0.0,85,0.00,,,0.00,VWS V13.01,2013-03-26 02:10:00,
2013-03-25 21:14:00,30.0,26.1,30.30,North,0,0.0,0.0,85,0.00,,,0.00,VWS V13.01,2013-03-26 02:14:00,
2013-03-25 21:15:00,29.8,25.9,30.30,North,0,0.0,0.0,85,0.00,,,0.00,VWS V13.01,2013-03-26 02:15:00,
2013-03-25 21:19:00,29.8,25.9,30.30,North,0,0.0,0.0,85,0.00,,,0.00,VWS V13.01,2013-03-26 02:19:00,
2013-03-25 21:20:00,29.8,25.9,30.30,North,0,0.0,0.0,85,0.00,,,0.00,VWS V13.01,2013-03-26 02:20:00,
2013-03-25 21:24:00,29.7,25.7,30.30,North,0,0.0,0.0,85,0.00,,,0.00,VWS V13.01,2013-03-26 02:24:00,
2013-03-25 21:25:00,29.5,25.5,30.30,North,0,0.0,0.0,85,0.00,,,0.00,VWS V13.01,2013-03-26 02:25:00,
2013-03-25 21:26:00,29.5,25.5,30.30,North,0,0.0,0.0,85,0.00,,,0.00,VWS V13.01,2013-03-26 02:26:00,
2013-03-25 21:29:00,29.5,25.5,30.33,North,0,0.0,0.0,85,0.00,,,0.00,VWS V13.01,2013-03-26 02:29:00,
2013-03-25 21:30:00,29.5,25.5,30.33,North,0,0.0,0.0,85,0.00,,,0.00,VWS V13.01,2013-03-26 02:30:00,
2013-03-25 21:31:00,29.5,25.5,30.33,North,0,0.0,0.0,85,0.00,,,0.00,VWS V13.01,2013-03-26 02:31:00,
2013-03-25 21:34:00,29.5,25.5,30.33,North,0,0.0,0.0,85,0.00,,,0.00,VWS V13.01,2013-03-26 02:34:00,
2013-03-25 21:35:00,29.5,25.5,30.33,North,0,0.0,0.0,85,0.00,,,0.00,VWS V13.01,2013-03-26 02:35:00,
2013-03-25 21:36:00,29.7,25.7,30.33,North,0,0.0,0.0,85,0.00,,,0.00,VWS V13.01,2013-03-26 02:36:00,
2013-03-25 21:39:00,29.5,25.5,30.33,North,0,0.0,0.0,85,0.00,,,0.00,VWS V13.01,2013-03-26 02:39:00,
2013-03-25 21:40:00,29.5,25.5,30.33,North,0,0.0,0.0,85,0.00,,,0.00,VWS V13.01,2013-03-26 02:40:00,
2013-03-25 21:41:00,29.5,25.5,30.33,North,0,0.0,0.0,85,0.00,,,0.00,VWS V13.01,2013-03-26 02:41:00,
2013-03-25 21:42:00,29.5,25.5,30.33,North,0,0.0,0.0,85,0.00,,,0.00,VWS V13.01,2013-03-26 02:42:00,
2013-03-25 21:44:00,29.5,25.5,30.33,North,0,0.0,0.0,85,0.00,,,0.00,VWS V13.01,2013-03-26 02:44:00,
2013-03-25 21:45:00,29.5,25.5,30.33,North,0,0.0,0.0,85,0.00,,,0.00,VWS V13.01,2013-03-26 02:45:00,
2013-03-25 21:46:00,29.5,25.5,30.33,North,0,0.0,0.0,85,0.00,,,0.00,VWS V13.01,2013-03-26 02:46:00,
2013-03-25 21:47:00,29.3,25.4,30.33,North,0,0.0,0.0,85,0.00,,,0.00,VWS V13.01,2013-03-26 02:47:00,
2013-03-25 21:49:00,29.3,25.4,30.33,North,0,0.0,0.0,85,0.00,,,0.00,VWS V13.01,2013-03-26 02:49:00,
2013-03-25 21:50:00,29.1,25.2,30.33,North,0,0.0,0.0,85,0.00,,,0.00,VWS V13.01,2013-03-26 02:50:00,
2013-03-25 21:52:00,29.1,25.2,30.33,North,0,0.0,0.0,85,0.00,,,0.00,VWS V13.01,2013-03-26 02:52:00,
2013-03-25 21:54:00,29.5,25.5,30.33,North,0,0.0,0.0,85,0.00,,,0.00,VWS V13.01,2013-03-26 02:54:00,
2013-03-25 21:55:00,29.5,25.5,30.33,North,0,0.0,0.0,85,0.00,,,0.00,VWS V13.01,2013-03-26 02:55:00,
2013-03-25 21:58:00,29.5,25.5,30.33,North,0,0.0,0.0,85,0.00,,,0.00,VWS V13.01,2013-03-26 02:58:00,
2013-03-25 21:59:00,29.5,25.5,30.33,North,0,0.0,0.0,85,0.00,,,0.00,VWS V13.01,2013-03-26 02:59:00,
2013-03-25 22:00:00,29.5,25.5,30.33,North,0,0.0,0.0,85,0.00,,,0.00,VWS V13.01,2013-03-26 03:00:00,
2013-03-25 22:03:00,29.5,25.5,30.33,North,0,0.0,0.0,85,0.00,,,0.00,VWS V13.01,2013-03-26 03:03:00,
2013-03-25 22:04:00,29.3,25.4,30.33,North,0,0.0,0.0,85,0.00,,,0.00,VWS V13.01,2013-03-26 03:04:00,
2013-03-25 22:05:00,29.3,25.4,30.33,North,0,0.0,0.0,85,0.00,,,0.00,VWS V13.01,2013-03-26 03:05:00,
2013-03-25 22:08:00,29.3,25.4,30.33,North,0,0.0,0.0,85,0.00,,,0.00,VWS V13.01,2013-03-26 03:08:00,
2013-03-25 22:09:00,29.3,25.4,30.33,North,0,0.0,0.0,85,0.00,,,0.00,VWS V13.01,2013-03-26 03:09:00,
2013-03-25 22:10:00,29.5,25.5,30.33,North,0,0.0,0.0,85,0.00,,,0.00,VWS V13.01,2013-03-26 03:10:00,
2013-03-25 22:13:00,29.3,25.4,30.33,North,0,0.0,0.0,85,0.00,,,0.00,VWS V13.01,2013-03-26 03:13:00,
2013-03-25 22:15:00,29.3,25.4,30.33,North,0,0.0,0.0,85,0.00,,,0.00,VWS V13.01,2013-03-26 03:15:00,
2013-03-25 22:18:00,29.5,25.5,30.33,North,0,0.0,0.0,85,0.00,,,0.00,VWS V13.01,2013-03-26 03:18:00,
2013-03-25 22:20:00,29.5,25.5,30.33,North,0,0.0,0.0,85,0.00,,,0.00,VWS V13.01,2013-03-26 03:20:00,
2013-03-25 22:23:00,29.3,25.4,30.33,North,0,0.0,0.0,85,0.00,,,0.00,VWS V13.01,2013-03-26 03:23:00,
2013-03-25 22:25:00,29.3,25.4,30.33,North,0,0.0,0.0,85,0.00,,,0.00,VWS V13.01,2013-03-26 03:25:00,
2013-03-25 22:28:00,29.3,25.4,30.33,North,0,0.0,0.0,85,0.00,,,0.00,VWS V13.01,2013-03-26 03:28:00,
2013-03-25 22:30:00,29.3,25.4,30.33,North,0,0.0,0.0,85,0.00,,,0.00,VWS V13.01,2013-03-26 03:30:00,
2013-03-25 22:34:00,29.1,25.2,30.33,North,0,0.0,0.0,85,0.00,,,0.00,VWS V13.01,2013-03-26 03:34:00,
2013-03-25 22:35:00,29.1,25.2,30.33,North,0,0.0,0.0,85,0.00,,,0.00,VWS V13.01,2013-03-26 03:35:00,
2013-03-25 22:39:00,29.3,25.4,30.33,North,0,0.0,0.0,85,0.00,,,0.00,VWS V13.01,2013-03-26 03:39:00,
2013-03-25 22:40:00,29.1,25.2,30.33,North,0,0.0,0.0,85,0.00,,,0.00,VWS V13.01,2013-03-26 03:40:00,
2013-03-25 22:44:00,29.3,25.4,30.33,North,0,0.0,0.0,85,0.00,,,0.00,VWS V13.01,2013-03-26 03:44:00,
2013-03-25 22:45:00,29.3,25.4,30.33,North,0,0.0,0.0,85,0.00,,,0.00,VWS V13.01,2013-03-26 03:45:00,
2013-03-25 22:49:00,29.3,25.4,30.33,North,0,0.0,0.0,85,0.00,,,0.00,VWS V13.01,2013-03-26 03:49:00,
2013-03-25 22:50:00,29.3,25.4,30.33,North,0,0.0,0.0,85,0.00,,,0.00,VWS V13.01,2013-03-26 03:50:00,
2013-03-25 22:54:00,29.1,25.2,30.33,North,0,0.0,0.0,85,0.00,,,0.00,VWS V13.01,2013-03-26 03:54:00,
2013-03-25 22:55:00,28.9,25.0,30.33,North,0,0.0,0.0,85,0.00,,,0.00,VWS V13.01,2013-03-26 03:55:00,
2013-03-25 22:59:00,29.1,25.2,30.33,North,0,0.0,0.0,85,0.00,,,0.00,VWS V13.01,2013-03-26 03:59:00,
2013-03-25 23:00:00,28.9,25.0,30.33,North,0,0.0,0.0,85,0.00,,,0.00,VWS V13.01,2013-03-26 04:00:00,
2013-03-25 23:05:00,28.8,24.8,30.33,North,0,0.0,0.0,85,0.00,,,0.00,VWS V13.01,2013-03-26 04:05:00,
2013-03-25 23:10:00,28.6,24.6,30.33,North,0,0.0,0.0,85,0.00,,,0.00,VWS V13.01,2013-03-26 04:10:00,
2013-03-25 23:15:00,28.2,24.3,30.36,North,0,0.0,0.0,85,0.00,,,0.00,VWS V13.01,2013-03-26 04:15:00,
2013-03-25 23:20:00,28.2,24.3,30.36,North,0,0.0,0.0,85,0.00,,,0.00,VWS V13.01,2013-03-26 04:20:00,
2013-03-25 23:25:00,28.2,24.3,30.36,North,0,0.0,0.0,85,0.00,,,0.00,VWS V13.01,2013-03-26 04:25:00,
2013-03-25 23:30:00,27.9,24.0,30.33,North,0,0.0,0.0,85,0.00,,,0.00,VWS V13.01,2013-03-26 04:30:00,
2013-03-25 23:35:00,27.5,23.6,30.33,North,0,0.0,0.0,85,0.00,,,0.00,VWS V13.01,2013-03-26 04:35:00,
2013-03-25 23:40:00,27.5,23.6,30.33,North,0,0.0,0.0,85,0.00,,,0.00,VWS V13.01,2013-03-26 04:40:00,
2013-03-25 23:41:00,27.5,23.6,30.33,North,0,0.0,0.0,85,0.00,,,0.00,VWS V13.01,2013-03-26 04:41:00,
2013-03-25 23:45:00,27.3,23.4,30.36,North,0,0.0,0.0,85,0.00,,,0.00,VWS V13.01,2013-03-26 04:45:00,
2013-03-25 23:47:00,27.5,23.6,30.36,North,0,0.0,0.0,85,0.00,,,0.00,VWS V13.01,2013-03-26 04:47:00,
2013-03-25 23:50:00,27.1,23.2,30.36,North,0,0.0,0.0,85,0.00,,,0.00,VWS V13.01,2013-03-26 04:50:00,
2013-03-25 23:51:00,27.1,23.2,30.36,North,0,0.0,0.0,85,0.00,,,0.00,VWS V13.01,2013-03-26 04:51:00,
2013-03-25 23:52:00,27.5,23.6,30.36,North,0,0.0,0.0,85,0.00,,,0.00,VWS V13.01,2013-03-26 04:52:00,
2013-03-25 23:55:00,27.3,23.4,30.36,North,0,0.0,0.0,85,0.00,,,0.00,VWS V13.01,2013-03-26 04:55:00,
2013-03-25 23:56:00,27.3,23.4,30.36,North,0,0.0,0.0,85,0.00,,,0.00,VWS V13.01,2013-03-26 04:56:00,
2013-03-25 23:57:00,27.3,23.4,30.36,North,0,0.0,0.0,85,0.00,,,0.00,VWS V13.01,2013-03-26 04:57:00,